CAL081 RCTP-EGLL

Flight info

Callsign CAL081
Flight time N/A
Altitude 26000
Route CHALI1C CHALI T3 MKG A1 KADLO/N0503F280 T1 KAPLI DCT ALLEY V10 SIKOU/K0928S0840 R339 WUY R474 TEBAK/K0937F280 R474 NOB W21 BQ B214 LADON/N0507F280 B214 AKSAG B465 CTG/N0515F300 B465 CEA R460 LKN M890 JAL R594 DPN G333 MERUN L750 UPVAL/N0503F320 L750 RANAH B449 MAMED B450 BIBIM A909 RODAR N644 ADEKI DCT BADIR DCT LAGAS DCT FOQUS DCT SARPI/N0489F340 UM10 GOKPA UL746 ODERO L621 REVDA DCT DEGET DCT ABETI DCT RENKA L610 STAUB/N0464F240 L610 INBED DCT BOMBI DCT ADKUV DCT SOGRI L608 LOGAN
Aircraft B77W/H-SDE1E2E3FGHIJ2J3J4J5M1RWXY/LB1D1

Departure

Time 2026-05-05 09:00
Airport Taiwan Taoyuan International Airport (RCTP)

Arrival

Time N/A
Airport London Heathrow Airport (EGLL)
Time Latitude Longitude Altitude Speed Heading
2026-05-05 08:06 25.08135 121.23327 121 ft 0 kts 140°
2026-05-05 08:46 25.08138 121.23325 121 ft 2 kts 140°
2026-05-05 08:46 25.08149 121.23314 121 ft 2 kts 140°
2026-05-05 08:47 25.08161 121.23303 121 ft 2 kts 140°
2026-05-05 08:47 25.08173 121.23292 121 ft 2 kts 140°
2026-05-05 08:47 25.08184 121.23282 121 ft 2 kts 140°
2026-05-05 08:47 25.08196 121.23272 121 ft 2 kts 153°
2026-05-05 08:48 25.08210 121.23267 121 ft 2 kts 181°
2026-05-05 08:48 25.08225 121.23270 121 ft 2 kts 205°
2026-05-05 08:48 25.08237 121.23280 121 ft 2 kts 229°
2026-05-05 08:48 25.08247 121.23292 121 ft 2 kts 232°
2026-05-05 08:49 25.08255 121.23304 121 ft 0 kts 229°
2026-05-05 08:49 25.08256 121.23305 121 ft 0 kts 229°
2026-05-05 08:51 25.08255 121.23305 121 ft 0 kts 229°
2026-05-05 08:52 25.08245 121.23292 121 ft 4 kts 229°
2026-05-05 08:52 25.08215 121.23253 121 ft 8 kts 229°
2026-05-05 08:52 25.08176 121.23203 121 ft 7 kts 231°
2026-05-05 08:52 25.08170 121.23154 121 ft 6 kts 293°
2026-05-05 08:53 25.08197 121.23114 121 ft 6 kts 300°
2026-05-05 08:53 25.08196 121.23062 121 ft 7 kts 243°
2026-05-05 08:53 25.08158 121.23012 121 ft 9 kts 227°
2026-05-05 08:53 25.08112 121.22955 121 ft 10 kts 229°
2026-05-05 08:54 25.08058 121.22887 121 ft 12 kts 229°
2026-05-05 08:54 25.07999 121.22811 121 ft 13 kts 229°
2026-05-05 08:54 25.07935 121.22729 121 ft 14 kts 229°
2026-05-05 08:54 25.07865 121.22639 121 ft 15 kts 229°
2026-05-05 08:55 25.07794 121.22549 121 ft 14 kts 229°
2026-05-05 08:55 25.07729 121.22468 121 ft 13 kts 229°
2026-05-05 08:55 25.07671 121.22395 121 ft 12 kts 229°
2026-05-05 08:55 25.07616 121.22324 121 ft 11 kts 229°
2026-05-05 08:56 25.07563 121.22257 121 ft 11 kts 229°
2026-05-05 08:56 25.07512 121.22192 121 ft 11 kts 229°
2026-05-05 08:56 25.07461 121.22128 121 ft 11 kts 229°
2026-05-05 08:56 25.07408 121.22060 121 ft 11 kts 229°
2026-05-05 08:57 25.07354 121.21993 121 ft 11 kts 229°
2026-05-05 08:57 25.07306 121.21931 121 ft 10 kts 229°
2026-05-05 08:57 25.07260 121.21874 121 ft 8 kts 229°
2026-05-05 08:57 25.07224 121.21828 121 ft 7 kts 229°
2026-05-05 08:58 25.07189 121.21784 121 ft 8 kts 229°
2026-05-05 08:58 25.07172 121.21734 121 ft 6 kts 281°
2026-05-05 08:58 25.07199 121.21690 121 ft 7 kts 316°
2026-05-05 08:58 25.07238 121.21652 120 ft 7 kts 320°
2026-05-05 08:59 25.07284 121.21623 120 ft 7 kts 354°
2026-05-05 08:59 25.07326 121.21647 120 ft 6 kts 49°
2026-05-05 08:59 25.07378 121.21712 121 ft 30 kts 49°
2026-05-05 08:59 25.07665 121.22076 121 ft 95 kts 49°
2026-05-05 09:00 25.08245 121.22812 121 ft 154 kts 49°
2026-05-05 09:00 25.09062 121.23846 157 ft 200 kts 50°
2026-05-05 09:00 25.09999 121.25030 716 ft 207 kts 50°
2026-05-05 09:00 25.10958 121.26208 1480 ft 207 kts 50°
2026-05-05 09:01 25.11923 121.27449 1881 ft 211 kts 52°
2026-05-05 09:01 25.12865 121.28709 2380 ft 210 kts 52°
2026-05-05 09:01 25.13949 121.29834 2793 ft 213 kts 31°
2026-05-05 09:01 25.15400 121.30329 3179 ft 219 kts
2026-05-05 09:02 25.16893 121.30037 3553 ft 225 kts 338°
2026-05-05 09:02 25.18186 121.28967 3709 ft 240 kts 310°
2026-05-05 09:02 25.19246 121.27460 3980 ft 253 kts 307°
2026-05-05 09:02 25.20311 121.25897 4400 ft 258 kts 307°
2026-05-05 09:03 25.21395 121.24299 5018 ft 255 kts 306°
2026-05-05 09:03 25.22459 121.22733 5612 ft 254 kts 305°
2026-05-05 09:03 25.23518 121.21172 6155 ft 255 kts 304°
2026-05-05 09:03 25.24587 121.19595 6690 ft 255 kts 304°
2026-05-05 09:04 25.25670 121.17997 7199 ft 256 kts 304°
2026-05-05 09:04 25.26744 121.16412 7719 ft 257 kts 303°
2026-05-05 09:04 25.27610 121.14686 8104 ft 258 kts 284°
2026-05-05 09:04 25.27840 121.12734 8371 ft 264 kts 263°
2026-05-05 09:05 25.27344 121.10744 8626 ft 271 kts 240°
2026-05-05 09:05 25.26217 121.09053 9154 ft 270 kts 230°
2026-05-05 09:05 25.24985 121.07497 9694 ft 271 kts 230°
2026-05-05 09:05 25.23736 121.05930 10149 ft 273 kts 230°
2026-05-05 09:06 25.22474 121.04335 10588 ft 278 kts 230°
2026-05-05 09:06 25.21185 121.02701 10968 ft 284 kts 231°
2026-05-05 09:06 25.19837 121.01018 11071 ft 302 kts 227°
2026-05-05 09:06 25.18256 120.99342 11116 ft 320 kts 225°
2026-05-05 09:07 25.16603 120.97625 11293 ft 335 kts 226°
2026-05-05 09:07 25.14895 120.95822 11525 ft 348 kts 226°
2026-05-05 09:07 25.13101 120.93911 11740 ft 362 kts 226°
2026-05-05 09:07 25.11277 120.91949 12047 ft 371 kts 227°
2026-05-05 09:08 25.09434 120.89960 12627 ft 373 kts 227°
2026-05-05 09:08 25.07554 120.87932 13234 ft 375 kts 227°
2026-05-05 09:08 25.05713 120.85947 13860 ft 375 kts 227°
2026-05-05 09:08 25.03837 120.83926 14396 ft 378 kts 227°
2026-05-05 09:09 25.01948 120.81891 14873 ft 381 kts 227°
2026-05-05 09:09 25.00048 120.79845 15397 ft 383 kts 227°
2026-05-05 09:09 24.98129 120.77782 15908 ft 385 kts 227°
2026-05-05 09:09 24.96213 120.75721 16331 ft 388 kts 227°
2026-05-05 09:10 24.94289 120.73652 16802 ft 390 kts 226°
2026-05-05 09:10 24.92332 120.71550 17254 ft 392 kts 226°
2026-05-05 09:10 24.90387 120.69462 17643 ft 394 kts 227°
2026-05-05 09:10 24.88384 120.67312 18067 ft 396 kts 226°
2026-05-05 09:11 24.86350 120.65129 18507 ft 398 kts 226°
2026-05-05 09:11 24.84355 120.62991 18886 ft 400 kts 227°
2026-05-05 09:11 24.82321 120.60810 19284 ft 403 kts 227°
2026-05-05 09:11 24.80261 120.58602 19691 ft 406 kts 227°
2026-05-05 09:12 24.78217 120.56413 20116 ft 407 kts 226°
2026-05-05 09:12 24.76185 120.54240 20516 ft 409 kts 227°
2026-05-05 09:12 24.74126 120.52039 20883 ft 411 kts 226°
2026-05-05 09:12 24.71894 120.49998 21199 ft 417 kts 219°
2026-05-05 09:13 24.69517 120.48174 21514 ft 421 kts 218°
2026-05-05 09:13 24.67108 120.46352 21861 ft 423 kts 218°
2026-05-05 09:13 24.64667 120.44505 22210 ft 425 kts 218°
2026-05-05 09:13 24.62233 120.42665 22567 ft 426 kts 218°
2026-05-05 09:14 24.59762 120.40796 22828 ft 430 kts 218°
2026-05-05 09:14 24.57314 120.38944 23028 ft 435 kts 218°
2026-05-05 09:14 24.54808 120.37049 23341 ft 437 kts 218°
2026-05-05 09:14 24.52281 120.35140 23699 ft 438 kts 218°
2026-05-05 09:15 24.49767 120.33242 24050 ft 439 kts 217°
2026-05-05 09:15 24.47229 120.31325 24328 ft 442 kts 217°
2026-05-05 09:15 24.44677 120.29396 24611 ft 445 kts 218°
2026-05-05 09:15 24.42103 120.27399 24861 ft 448 kts 218°
2026-05-05 09:16 24.39527 120.25391 25165 ft 450 kts 218°
2026-05-05 09:16 24.36950 120.23386 25516 ft 452 kts 218°
2026-05-05 09:16 24.34375 120.21383 25818 ft 454 kts 218°
2026-05-05 09:16 24.31783 120.19369 26090 ft 456 kts 218°
2026-05-05 09:17 24.29209 120.17371 26370 ft 458 kts 217°
2026-05-05 09:17 24.26591 120.15340 26652 ft 460 kts 218°
2026-05-05 09:17 24.23941 120.13285 26910 ft 463 kts 218°
2026-05-05 09:17 24.21297 120.11236 27153 ft 466 kts 217°
2026-05-05 09:18 24.18627 120.09169 27441 ft 468 kts 217°
2026-05-05 09:18 24.15991 120.07130 27817 ft 467 kts 217°
2026-05-05 09:18 24.13313 120.05058 27944 ft 471 kts 217°
2026-05-05 09:18 24.10628 120.02983 27954 ft 470 kts 217°
2026-05-05 09:19 24.07944 120.00911 27942 ft 468 kts 217°
2026-05-05 09:19 24.05287 119.98859 27958 ft 471 kts 217°
2026-05-05 09:19 24.02606 119.96790 27947 ft 470 kts 217°
2026-05-05 09:19 23.99912 119.94714 27945 ft 469 kts 217°
2026-05-05 09:20 23.97219 119.92639 27955 ft 469 kts 217°
2026-05-05 09:20 23.94558 119.90590 27949 ft 470 kts 217°
2026-05-05 09:20 23.91868 119.88519 27952 ft 471 kts 217°
2026-05-05 09:20 23.89152 119.86431 27957 ft 470 kts 218°
2026-05-05 09:21 23.86460 119.84361 27957 ft 468 kts 218°
2026-05-05 09:21 23.83786 119.82307 27959 ft 468 kts 217°
2026-05-05 09:21 23.81138 119.80273 27959 ft 470 kts 218°
2026-05-05 09:21 23.78469 119.78224 27956 ft 470 kts 218°
2026-05-05 09:22 23.75764 119.76149 27950 ft 468 kts 218°
2026-05-05 09:22 23.73091 119.74100 27951 ft 469 kts 218°
2026-05-05 09:22 23.70426 119.72057 27955 ft 469 kts 218°
2026-05-05 09:22 23.67738 119.69998 27954 ft 467 kts 218°
2026-05-05 09:23 23.65079 119.67963 27955 ft 466 kts 218°
2026-05-05 09:23 23.62433 119.65923 27956 ft 467 kts 220°
2026-05-05 09:23 23.59994 119.63583 27961 ft 463 kts 229°
2026-05-05 09:23 23.57952 119.60883 27962 ft 461 kts 237°
2026-05-05 09:24 23.56201 119.57959 27965 ft 461 kts 239°
2026-05-05 09:24 23.54475 119.54982 27963 ft 460 kts 239°
2026-05-05 09:24 23.52771 119.52038 27965 ft 461 kts 239°
2026-05-05 09:24 23.51071 119.49103 27961 ft 461 kts 239°
2026-05-05 09:25 23.49362 119.46155 27953 ft 459 kts 239°
2026-05-05 09:25 23.47652 119.43208 27961 ft 458 kts 239°
2026-05-05 09:25 23.45951 119.40278 27957 ft 459 kts 239°
2026-05-05 09:25 23.44245 119.37342 27955 ft 458 kts 240°
2026-05-05 09:26 23.42528 119.34389 27956 ft 457 kts 239°
2026-05-05 09:26 23.40819 119.31451 27959 ft 458 kts 239°
2026-05-05 09:26 23.39115 119.28524 27959 ft 457 kts 239°
2026-05-05 09:26 23.37409 119.25595 27957 ft 458 kts 239°
2026-05-05 09:27 23.35716 119.22688 27958 ft 457 kts 239°
2026-05-05 09:27 23.33996 119.19740 27954 ft 457 kts 239°
2026-05-05 09:27 23.32308 119.16846 27947 ft 456 kts 239°
2026-05-05 09:27 23.30599 119.13919 27941 ft 458 kts 239°
2026-05-05 09:28 23.28882 119.10980 27949 ft 457 kts 239°
2026-05-05 09:28 23.27168 119.08048 27956 ft 456 kts 239°
2026-05-05 09:28 23.25484 119.05169 27953 ft 456 kts 239°
2026-05-05 09:28 23.23775 119.02248 27955 ft 456 kts 239°
2026-05-05 09:29 23.22034 118.99274 27956 ft 457 kts 239°
2026-05-05 09:29 23.20336 118.96375 27956 ft 456 kts 239°
2026-05-05 09:29 23.18643 118.93487 27955 ft 456 kts 239°
2026-05-05 09:29 23.16931 118.90569 27952 ft 456 kts 239°
2026-05-05 09:30 23.15208 118.87631 27952 ft 456 kts 240°
2026-05-05 09:30 23.13507 118.84734 27955 ft 457 kts 239°
2026-05-05 09:30 23.11791 118.81814 27950 ft 456 kts 239°
2026-05-05 09:30 23.10068 118.78883 27948 ft 456 kts 240°
2026-05-05 09:31 23.08342 118.75948 27948 ft 458 kts 239°
2026-05-05 09:31 23.06633 118.73044 27945 ft 458 kts 240°
2026-05-05 09:31 23.04921 118.70137 27947 ft 458 kts 239°
2026-05-05 09:31 23.03191 118.67201 27950 ft 458 kts 239°
2026-05-05 09:32 23.01469 118.64279 27944 ft 457 kts 239°
2026-05-05 09:32 22.99744 118.61356 27943 ft 458 kts 240°
2026-05-05 09:32 22.98021 118.58456 27939 ft 459 kts 238°
2026-05-05 09:32 22.96023 118.55764 27943 ft 461 kts 230°
2026-05-05 09:33 22.93611 118.53411 27937 ft 466 kts 221°
2026-05-05 09:33 22.90878 118.51489 27942 ft 472 kts 214°
2026-05-05 09:33 22.88017 118.49764 27945 ft 474 kts 214°
2026-05-05 09:33 22.85082 118.48023 27941 ft 473 kts 213°
2026-05-05 09:34 22.82206 118.46322 27942 ft 473 kts 213°
2026-05-05 09:34 22.79280 118.44591 27937 ft 473 kts 214°
2026-05-05 09:34 22.76390 118.42885 27944 ft 474 kts 213°
2026-05-05 09:34 22.73466 118.41160 27939 ft 474 kts 213°
2026-05-05 09:35 22.70543 118.39436 27944 ft 474 kts 213°
2026-05-05 09:35 22.64830 118.36073 27938 ft 475 kts 213°
2026-05-05 09:35 22.61895 118.34348 27951 ft 475 kts 213°
2026-05-05 09:36 22.58940 118.32614 27952 ft 474 kts 213°
2026-05-05 09:36 22.56020 118.30901 27949 ft 475 kts 213°
2026-05-05 09:36 22.53115 118.29196 27951 ft 476 kts 213°
2026-05-05 09:36 22.50201 118.27486 27950 ft 476 kts 213°
2026-05-05 09:37 22.47253 118.25760 27953 ft 476 kts 213°
2026-05-05 09:37 22.44332 118.24048 27958 ft 478 kts 213°
2026-05-05 09:37 22.41399 118.22331 27959 ft 478 kts 213°
2026-05-05 09:37 22.38483 118.20624 27956 ft 476 kts 213°
2026-05-05 09:38 22.35570 118.18915 27960 ft 478 kts 213°
2026-05-05 09:38 22.32626 118.17188 27954 ft 478 kts 213°
2026-05-05 09:38 22.29672 118.15456 27954 ft 477 kts 213°
2026-05-05 09:38 22.26746 118.13741 27956 ft 478 kts 213°
2026-05-05 09:39 22.23826 118.12032 27958 ft 478 kts 213°
2026-05-05 09:39 22.20879 118.10313 27952 ft 476 kts 213°
2026-05-05 09:39 22.17969 118.08615 27955 ft 476 kts 213°
2026-05-05 09:39 22.15002 118.06884 27954 ft 478 kts 213°
2026-05-05 09:40 22.12068 118.05173 27951 ft 479 kts 213°
2026-05-05 09:40 22.09102 118.03446 27950 ft 480 kts 213°
2026-05-05 09:40 22.06151 118.01727 27950 ft 481 kts 213°
2026-05-05 09:40 22.03194 118.00007 27945 ft 481 kts 213°
2026-05-05 09:41 22.00259 117.98299 27949 ft 480 kts 213°
2026-05-05 09:41 21.97300 117.96578 27949 ft 481 kts 213°
2026-05-05 09:41 21.94303 117.94836 27948 ft 482 kts 213°
2026-05-05 09:41 21.91333 117.93111 27947 ft 482 kts 213°
2026-05-05 09:42 21.88358 117.91383 27945 ft 481 kts 213°
2026-05-05 09:42 21.85383 117.89657 27946 ft 482 kts 213°
2026-05-05 09:42 21.82433 117.87946 27943 ft 481 kts 213°
2026-05-05 09:42 21.79483 117.86235 27939 ft 482 kts 213°
2026-05-05 09:43 21.76504 117.84508 27941 ft 482 kts 213°
2026-05-05 09:43 21.73536 117.82790 27939 ft 482 kts 213°
2026-05-05 09:43 21.70577 117.81076 27934 ft 482 kts 213°
2026-05-05 09:43 21.67607 117.79357 27933 ft 481 kts 213°
2026-05-05 09:44 21.64663 117.77654 27931 ft 482 kts 213°
2026-05-05 09:44 21.61662 117.75919 27930 ft 485 kts 213°
2026-05-05 09:44 21.58682 117.74196 27931 ft 484 kts 213°
2026-05-05 09:44 21.55705 117.72477 27930 ft 483 kts 213°
2026-05-05 09:45 21.52755 117.70774 27925 ft 483 kts 213°
2026-05-05 09:45 21.49771 117.69051 27919 ft 484 kts 213°
2026-05-05 09:45 21.46764 117.67317 27919 ft 483 kts 213°
2026-05-05 09:45 21.43826 117.65623 27917 ft 483 kts 213°
2026-05-05 09:46 21.40834 117.63899 27914 ft 484 kts 213°
2026-05-05 09:46 21.37834 117.62170 27913 ft 484 kts 213°
2026-05-05 09:46 21.34870 117.60464 27913 ft 483 kts 213°
2026-05-05 09:46 21.31885 117.58746 27909 ft 483 kts 212°
2026-05-05 09:47 21.28931 117.57046 27909 ft 485 kts 212°
2026-05-05 09:47 21.26036 117.55194 27906 ft 481 kts 219°
2026-05-05 09:47 21.23417 117.52901 27907 ft 477 kts 227°
2026-05-05 09:47 21.21196 117.50271 27906 ft 474 kts 235°
2026-05-05 09:48 21.19374 117.47338 27905 ft 470 kts 243°
2026-05-05 09:48 21.17974 117.44148 27905 ft 469 kts 251°
2026-05-05 09:48 21.17037 117.40820 27902 ft 467 kts 258°
2026-05-05 09:48 21.16560 117.37346 27901 ft 467 kts 266°
2026-05-05 09:49 21.16461 117.33862 27914 ft 467 kts 269°
2026-05-05 09:49 21.16436 117.31523 27918 ft 467 kts 269°
2026-05-05 09:50 21.16229 117.13253 27926 ft 466 kts 269°
2026-05-05 09:50 21.16186 117.09798 27930 ft 467 kts 269°
2026-05-05 09:51 21.16141 117.06293 27931 ft 467 kts 269°
2026-05-05 09:51 21.16095 117.02818 27932 ft 466 kts 269°
2026-05-05 09:51 21.16048 116.99339 27929 ft 466 kts 269°
2026-05-05 09:51 21.16001 116.95876 27931 ft 467 kts 269°
2026-05-05 09:52 21.15952 116.92354 27926 ft 468 kts 269°
2026-05-05 09:52 21.15903 116.88876 27931 ft 468 kts 269°
2026-05-05 09:52 21.15853 116.85391 27930 ft 466 kts 269°
2026-05-05 09:52 21.15802 116.81918 27930 ft 467 kts 269°
2026-05-05 09:53 21.15751 116.78470 27929 ft 467 kts 269°
2026-05-05 09:53 21.15699 116.74967 27931 ft 467 kts 269°
2026-05-05 09:53 21.15646 116.71498 27930 ft 466 kts 269°
2026-05-05 09:53 21.15593 116.68035 27931 ft 467 kts 269°
2026-05-05 09:54 21.15538 116.64529 27929 ft 466 kts 269°
2026-05-05 09:54 21.15483 116.61066 27925 ft 466 kts 269°
2026-05-05 09:54 21.15428 116.57598 27930 ft 467 kts 269°
2026-05-05 09:54 21.15371 116.54085 27930 ft 466 kts 269°
2026-05-05 09:55 21.15314 116.50629 27926 ft 466 kts 269°
2026-05-05 09:55 21.15256 116.47153 27923 ft 467 kts 269°
2026-05-05 09:55 21.15197 116.43634 27926 ft 468 kts 269°
2026-05-05 09:55 21.15138 116.40143 27926 ft 467 kts 269°
2026-05-05 09:56 21.15078 116.36693 27927 ft 467 kts 269°
2026-05-05 09:56 21.15017 116.33182 27933 ft 466 kts 269°
2026-05-05 09:56 21.14996 116.32010 27934 ft 466 kts 269°
2026-05-05 09:57 21.14638 116.12331 27934 ft 466 kts 269°
2026-05-05 09:58 21.14573 116.08900 27935 ft 466 kts 269°
2026-05-05 09:58 21.14507 116.05447 27933 ft 467 kts 269°
2026-05-05 09:58 21.14439 116.01932 27937 ft 468 kts 269°
2026-05-05 09:58 21.14372 115.98473 27935 ft 466 kts 269°
2026-05-05 09:59 21.14304 115.95022 27933 ft 466 kts 269°
2026-05-05 09:59 21.14234 115.91506 27934 ft 467 kts 269°
2026-05-05 09:59 21.14164 115.88029 27931 ft 467 kts 269°
2026-05-05 09:59 21.14094 115.84566 27932 ft 466 kts 269°
2026-05-05 10:00 21.14023 115.81126 27931 ft 467 kts 269°
2026-05-05 10:00 21.13951 115.77625 27926 ft 467 kts 269°
2026-05-05 10:00 21.13878 115.74162 27927 ft 467 kts 269°
2026-05-05 10:00 21.13804 115.70674 27921 ft 466 kts 269°
2026-05-05 10:01 21.13731 115.67241 27918 ft 467 kts 269°
2026-05-05 10:01 21.13656 115.63747 27913 ft 469 kts 269°
2026-05-05 10:01 21.13580 115.60239 27910 ft 468 kts 269°
2026-05-05 10:01 21.13504 115.56789 27913 ft 467 kts 269°
2026-05-05 10:02 21.13427 115.53308 27914 ft 467 kts 269°
2026-05-05 10:02 21.13349 115.49825 27911 ft 468 kts 269°
2026-05-05 10:02 21.13272 115.46408 27909 ft 467 kts 269°
2026-05-05 10:02 21.13192 115.42885 27910 ft 467 kts 269°
2026-05-05 10:03 21.13111 115.39377 27907 ft 468 kts 269°
2026-05-05 10:03 21.13031 115.35916 27911 ft 467 kts 269°
2026-05-05 10:03 21.12951 115.32469 27919 ft 466 kts 269°
2026-05-05 10:03 21.12868 115.28950 27916 ft 468 kts 269°
2026-05-05 10:04 21.12784 115.25447 27921 ft 468 kts 269°
2026-05-05 10:04 21.12701 115.21975 27920 ft 466 kts 269°
2026-05-05 10:04 21.12617 115.18491 27924 ft 466 kts 269°
2026-05-05 10:04 21.12532 115.15031 27921 ft 467 kts 269°
2026-05-05 10:05 21.12446 115.11512 27921 ft 467 kts 269°
2026-05-05 10:05 21.12359 115.08012 27918 ft 467 kts 269°
2026-05-05 10:05 21.12272 115.04562 27916 ft 467 kts 269°
2026-05-05 10:05 21.12184 115.01042 27912 ft 467 kts 269°
2026-05-05 10:06 21.12095 114.97574 27914 ft 467 kts 269°
2026-05-05 10:06 21.12006 114.94077 27916 ft 467 kts 269°
2026-05-05 10:06 21.11916 114.90621 27913 ft 467 kts 269°
2026-05-05 10:06 21.11826 114.87135 27913 ft 468 kts 269°
2026-05-05 10:07 21.11735 114.83681 27911 ft 467 kts 269°
2026-05-05 10:07 21.11642 114.80159 27912 ft 468 kts 269°
2026-05-05 10:07 21.11550 114.76685 27910 ft 467 kts 269°
2026-05-05 10:07 21.11456 114.73201 27906 ft 467 kts 269°
2026-05-05 10:08 21.11362 114.69724 27908 ft 468 kts 269°
2026-05-05 10:08 21.11266 114.66217 27912 ft 467 kts 269°
2026-05-05 10:08 21.11170 114.62718 27909 ft 467 kts 269°
2026-05-05 10:08 21.11074 114.59238 27908 ft 468 kts 269°
2026-05-05 10:09 21.10976 114.55722 27910 ft 468 kts 269°
2026-05-05 10:09 21.10879 114.52259 27906 ft 468 kts 269°
2026-05-05 10:09 21.10780 114.48759 27908 ft 469 kts 269°
2026-05-05 10:09 21.10680 114.45252 27905 ft 469 kts 269°
2026-05-05 10:10 21.10580 114.41794 27908 ft 468 kts 269°
2026-05-05 10:10 21.10478 114.38268 27908 ft 467 kts 269°
2026-05-05 10:10 21.10378 114.34805 27904 ft 468 kts 269°
2026-05-05 10:10 21.10274 114.31282 27916 ft 468 kts 269°
2026-05-05 10:11 21.10172 114.27831 27917 ft 467 kts 269°
2026-05-05 10:11 21.10068 114.24338 27915 ft 467 kts 269°
2026-05-05 10:11 21.09965 114.20870 27917 ft 467 kts 269°
2026-05-05 10:11 21.09859 114.17375 27916 ft 468 kts 269°
2026-05-05 10:12 21.09754 114.13887 27920 ft 467 kts 269°
2026-05-05 10:12 21.09647 114.10405 27916 ft 466 kts 269°
2026-05-05 10:12 21.09542 114.06973 27913 ft 468 kts 269°
2026-05-05 10:12 21.09433 114.03468 27913 ft 469 kts 269°
2026-05-05 10:13 21.09325 113.99994 27910 ft 468 kts 269°
2026-05-05 10:13 21.09216 113.96500 27915 ft 468 kts 269°
2026-05-05 10:13 21.09107 113.93056 27915 ft 467 kts 269°
2026-05-05 10:13 21.08996 113.89569 27909 ft 468 kts 269°
2026-05-05 10:14 21.08884 113.86070 27910 ft 469 kts 269°
2026-05-05 10:14 21.08773 113.82604 27907 ft 470 kts 269°
2026-05-05 10:14 21.08444 113.79121 27910 ft 471 kts 261°
2026-05-05 10:14 21.07625 113.75721 27916 ft 472 kts 254°
2026-05-05 10:15 21.06591 113.72403 27912 ft 472 kts 253°
2026-05-05 10:15 21.05518 113.69039 27914 ft 473 kts 253°
2026-05-05 10:15 21.04451 113.65710 27916 ft 473 kts 253°
2026-05-05 10:15 21.03386 113.62403 27916 ft 473 kts 253°
2026-05-05 10:16 21.02306 113.59058 27911 ft 472 kts 253°
2026-05-05 10:16 21.01230 113.55727 27907 ft 472 kts 253°
2026-05-05 10:16 21.00162 113.52430 27907 ft 474 kts 253°
2026-05-05 10:16 20.99075 113.49078 27906 ft 473 kts 253°
2026-05-05 10:17 20.98002 113.45775 27898 ft 472 kts 253°
2026-05-05 10:17 20.96920 113.42446 27895 ft 473 kts 253°
2026-05-05 10:17 20.95830 113.39097 27894 ft 473 kts 253°
2026-05-05 10:17 20.94745 113.35767 27894 ft 474 kts 253°
2026-05-05 10:18 20.93656 113.32425 27907 ft 474 kts 253°
2026-05-05 10:18 20.92571 113.29099 27909 ft 474 kts 253°
2026-05-05 10:18 20.91483 113.25767 27912 ft 474 kts 253°
2026-05-05 10:18 20.90385 113.22407 27913 ft 474 kts 253°
2026-05-05 10:19 20.89282 113.19036 27910 ft 474 kts 253°
2026-05-05 10:19 20.88205 113.15743 27906 ft 475 kts 253°
2026-05-05 10:19 20.87111 113.12403 27907 ft 475 kts 253°
2026-05-05 10:19 20.86013 113.09055 27907 ft 475 kts 253°
2026-05-05 10:20 20.85281 113.06822 27906 ft 475 kts 253°
2026-05-05 10:21 20.77229 112.82346 27901 ft 476 kts 253°
2026-05-05 10:22 20.76132 112.79022 27904 ft 475 kts 253°
2026-05-05 10:22 20.75028 112.75680 27903 ft 475 kts 253°
2026-05-05 10:22 20.73933 112.72365 27905 ft 476 kts 253°
2026-05-05 10:22 20.72831 112.69034 27901 ft 475 kts 253°
2026-05-05 10:23 20.71729 112.65702 27905 ft 476 kts 253°
2026-05-05 10:23 20.70627 112.62375 27906 ft 476 kts 253°
2026-05-05 10:23 20.69527 112.59056 27906 ft 476 kts 253°
2026-05-05 10:23 20.68412 112.55695 27901 ft 475 kts 253°
2026-05-05 10:24 20.67310 112.52374 27903 ft 475 kts 253°
2026-05-05 10:24 20.66212 112.49068 27903 ft 476 kts 253°
2026-05-05 10:24 20.65105 112.45738 27903 ft 476 kts 253°
2026-05-05 10:24 20.63994 112.42397 27904 ft 475 kts 253°
2026-05-05 10:25 20.62875 112.39037 27903 ft 475 kts 253°
2026-05-05 10:25 20.61767 112.35710 27901 ft 475 kts 253°
2026-05-05 10:25 20.60656 112.32378 27913 ft 476 kts 253°
2026-05-05 10:25 20.59538 112.29025 27911 ft 477 kts 253°
2026-05-05 10:26 20.58422 112.25684 27911 ft 477 kts 253°
2026-05-05 10:26 20.57382 112.22324 27906 ft 475 kts 258°
2026-05-05 10:26 20.56790 112.18851 27909 ft 474 kts 266°
2026-05-05 10:26 20.56712 112.15331 27909 ft 471 kts 274°
2026-05-05 10:27 20.57142 112.11864 27908 ft 470 kts 282°
2026-05-05 10:27 20.58078 112.08478 27909 ft 469 kts 290°
2026-05-05 10:27 20.59406 112.05315 27916 ft 470 kts 295°
2026-05-05 10:27 20.60844 112.02150 27910 ft 471 kts 295°
2026-05-05 10:28 20.62275 111.99006 27909 ft 469 kts 295°
2026-05-05 10:28 20.63699 111.95869 27909 ft 469 kts 295°
2026-05-05 10:28 20.65117 111.92740 27909 ft 470 kts 295°
2026-05-05 10:28 20.66543 111.89587 27909 ft 469 kts 295°
2026-05-05 10:29 20.67953 111.86465 27908 ft 468 kts 295°
2026-05-05 10:29 20.69380 111.83302 27907 ft 468 kts 295°
2026-05-05 10:29 20.70789 111.80176 27907 ft 468 kts 295°
2026-05-05 10:29 20.72192 111.77058 27906 ft 469 kts 295°
2026-05-05 10:30 20.73608 111.73910 27905 ft 470 kts 295°
2026-05-05 10:30 20.75020 111.70771 27904 ft 470 kts 295°
2026-05-05 10:30 20.76434 111.67622 27905 ft 470 kts 295°
2026-05-05 10:30 20.77854 111.64459 27904 ft 469 kts 295°
2026-05-05 10:31 20.79265 111.61312 27904 ft 470 kts 295°
2026-05-05 10:31 20.80674 111.58172 27903 ft 470 kts 295°
2026-05-05 10:31 20.82087 111.55018 27902 ft 469 kts 295°
2026-05-05 10:31 20.83490 111.51881 27896 ft 470 kts 294°
2026-05-05 10:32 20.84650 111.48615 27892 ft 469 kts 286°
2026-05-05 10:32 20.85527 111.45238 27892 ft 469 kts 285°
2026-05-05 10:32 20.86359 111.41907 27890 ft 468 kts 285°
2026-05-05 10:32 20.87196 111.38547 27889 ft 468 kts 285°
2026-05-05 10:33 20.88041 111.35154 27889 ft 468 kts 285°
2026-05-05 10:33 20.88879 111.31786 27898 ft 469 kts 285°
2026-05-05 10:33 20.89717 111.28414 27897 ft 469 kts 285°
2026-05-05 10:33 20.90557 111.25034 27894 ft 468 kts 285°
2026-05-05 10:34 20.91387 111.21688 27894 ft 467 kts 284°
2026-05-05 10:34 20.92222 111.18322 27893 ft 468 kts 284°
2026-05-05 10:34 20.93065 111.14920 27893 ft 468 kts 285°
2026-05-05 10:34 20.93899 111.11551 27893 ft 467 kts 284°
2026-05-05 10:35 20.94728 111.08203 27892 ft 466 kts 284°
2026-05-05 10:35 20.95557 111.04848 27890 ft 468 kts 284°
2026-05-05 10:35 20.96414 111.01447 27889 ft 468 kts 285°
2026-05-05 10:35 20.97263 110.98098 27889 ft 467 kts 285°
2026-05-05 10:36 20.98111 110.94748 27888 ft 468 kts 285°
2026-05-05 10:36 20.98957 110.91401 27887 ft 468 kts 285°
2026-05-05 10:36 20.99804 110.88049 27887 ft 467 kts 285°
2026-05-05 10:36 21.00658 110.84659 27886 ft 468 kts 285°
2026-05-05 10:37 21.01496 110.81334 27887 ft 468 kts 285°
2026-05-05 10:37 21.02344 110.77966 27885 ft 467 kts 285°
2026-05-05 10:37 21.03187 110.74611 27887 ft 467 kts 285°
2026-05-05 10:37 21.04033 110.71242 27891 ft 468 kts 285°
2026-05-05 10:38 21.04882 110.67861 27894 ft 468 kts 285°
2026-05-05 10:38 21.05724 110.64499 27896 ft 468 kts 285°
2026-05-05 10:38 21.06568 110.61129 27895 ft 468 kts 285°
2026-05-05 10:38 21.07410 110.57764 27898 ft 469 kts 285°
2026-05-05 10:39 21.08244 110.54427 27896 ft 468 kts 285°
2026-05-05 10:39 21.09090 110.51041 27896 ft 468 kts 285°
2026-05-05 10:39 21.09930 110.47673 27895 ft 469 kts 285°
2026-05-05 10:39 21.10772 110.44299 27897 ft 468 kts 285°
2026-05-05 10:40 21.11617 110.40903 27895 ft 468 kts 285°
2026-05-05 10:40 21.12455 110.37537 27894 ft 469 kts 285°
2026-05-05 10:40 21.13386 110.34115 27889 ft 468 kts 289°
2026-05-05 10:40 21.14608 110.31150 27903 ft 469 kts 296°
2026-05-05 10:41 21.16117 110.28115 27912 ft 471 kts 297°
2026-05-05 10:41 21.17618 110.25146 27911 ft 469 kts 297°
2026-05-05 10:41 21.19129 110.22156 27913 ft 469 kts 297°
2026-05-05 10:41 21.20694 110.19057 27913 ft 470 kts 297°
2026-05-05 10:42 21.23768 110.12959 27911 ft 469 kts 297°
2026-05-05 10:42 21.25334 110.09848 27909 ft 469 kts 297°
2026-05-05 10:42 21.26881 110.06774 27909 ft 469 kts 297°
2026-05-05 10:43 21.28449 110.03655 27908 ft 469 kts 297°
2026-05-05 10:43 21.29984 110.00598 27907 ft 469 kts 297°
2026-05-05 10:43 21.31547 109.97485 27908 ft 469 kts 297°
2026-05-05 10:43 21.33078 109.94434 27908 ft 469 kts 297°
2026-05-05 10:44 21.34626 109.91348 27907 ft 469 kts 297°
2026-05-05 10:44 21.36182 109.88242 27907 ft 470 kts 297°
2026-05-05 10:44 21.37736 109.85139 27906 ft 470 kts 297°
2026-05-05 10:44 21.39274 109.82066 27905 ft 469 kts 297°
2026-05-05 10:45 21.40845 109.78925 27904 ft 469 kts 297°
2026-05-05 10:45 21.42383 109.75848 27901 ft 470 kts 297°
2026-05-05 10:45 21.43927 109.72759 27900 ft 469 kts 297°
2026-05-05 10:45 21.45475 109.69659 27900 ft 469 kts 297°
2026-05-05 10:46 21.47005 109.66592 27898 ft 470 kts 297°
2026-05-05 10:46 21.48551 109.63493 27898 ft 470 kts 297°
2026-05-05 10:46 21.50102 109.60381 27894 ft 469 kts 297°
2026-05-05 10:46 21.51638 109.57299 27895 ft 469 kts 297°
2026-05-05 10:47 21.53175 109.54210 27892 ft 469 kts 297°
2026-05-05 10:47 21.54702 109.51143 27890 ft 469 kts 297°
2026-05-05 10:47 21.56249 109.48031 27889 ft 469 kts 297°
2026-05-05 10:47 21.57798 109.44927 27882 ft 469 kts 298°
2026-05-05 10:48 21.59582 109.42030 27880 ft 471 kts 306°
2026-05-05 10:48 21.61671 109.39295 27881 ft 472 kts 308°
2026-05-05 10:48 21.63808 109.36568 27878 ft 471 kts 308°
2026-05-05 10:48 21.65919 109.33876 27884 ft 471 kts 308°
2026-05-05 10:49 21.68039 109.31169 27890 ft 471 kts 308°
2026-05-05 10:49 21.70167 109.28447 27892 ft 471 kts 308°
2026-05-05 10:49 21.72288 109.25734 27889 ft 471 kts 308°
2026-05-05 10:49 21.74415 109.23010 27887 ft 471 kts 308°
2026-05-05 10:50 21.76539 109.20288 27886 ft 472 kts 308°
2026-05-05 10:50 21.78662 109.17566 27889 ft 471 kts 308°
2026-05-05 10:50 21.80781 109.14846 27891 ft 472 kts 308°
2026-05-05 10:50 21.82899 109.12126 27893 ft 472 kts 308°
2026-05-05 10:51 21.84992 109.09438 27893 ft 471 kts 308°
2026-05-05 10:51 21.87130 109.06702 27890 ft 470 kts 308°
2026-05-05 10:51 21.89077 109.04218 27890 ft 471 kts 308°
2026-05-05 10:51 21.90172 109.02820 27891 ft 471 kts 308°
2026-05-05 10:52 21.92289 109.00116 27891 ft 471 kts 308°
2026-05-05 10:52 21.94411 108.97405 27890 ft 472 kts 308°
2026-05-05 10:52 21.96540 108.94681 27892 ft 472 kts 308°
2026-05-05 10:52 21.98684 108.91939 27894 ft 472 kts 308°
2026-05-05 10:53 22.00800 108.89229 27895 ft 472 kts 308°
2026-05-05 10:53 22.02902 108.86536 27897 ft 472 kts 308°
2026-05-05 10:53 22.05051 108.83782 27898 ft 472 kts 308°
2026-05-05 10:53 22.07160 108.81077 27900 ft 471 kts 308°
2026-05-05 10:54 22.09253 108.78392 27897 ft 471 kts 308°
2026-05-05 10:54 22.11370 108.75674 27899 ft 471 kts 308°
2026-05-05 10:54 22.13516 108.72925 27898 ft 471 kts 308°
2026-05-05 10:54 22.15658 108.70188 27896 ft 471 kts 308°
2026-05-05 10:55 22.17801 108.67448 27897 ft 470 kts 308°
2026-05-05 10:55 22.19844 108.64835 27897 ft 470 kts 308°
2026-05-05 10:55 22.21955 108.62134 27895 ft 470 kts 308°
2026-05-05 10:55 22.23521 108.60130 27893 ft 471 kts 308°
2026-05-05 10:56 22.25663 108.57386 27894 ft 471 kts 308°
2026-05-05 10:56 22.27805 108.54640 27889 ft 471 kts 308°
2026-05-05 10:56 22.29939 108.51904 27892 ft 472 kts 308°
2026-05-05 10:56 22.31837 108.49468 27889 ft 471 kts 308°
2026-05-05 10:57 22.33885 108.46838 27891 ft 470 kts 308°
2026-05-05 10:57 22.36039 108.44073 27891 ft 471 kts 308°
2026-05-05 10:57 22.37809 108.41798 27889 ft 470 kts 308°
2026-05-05 10:57 22.39808 108.39228 27888 ft 470 kts 308°
2026-05-05 10:58 22.41922 108.36509 27890 ft 470 kts 308°
2026-05-05 10:58 22.43967 108.33876 27892 ft 470 kts 308°
2026-05-05 10:58 22.46036 108.31213 27895 ft 470 kts 308°
2026-05-05 10:58 22.48177 108.28454 27902 ft 470 kts 308°
2026-05-05 10:59 22.50304 108.25712 27901 ft 470 kts 308°
2026-05-05 10:59 22.51486 108.24188 27900 ft 471 kts 308°
2026-05-05 10:59 22.53395 108.21545 27893 ft 469 kts 302°
2026-05-05 10:59 22.55018 108.18472 27896 ft 467 kts 294°
2026-05-05 11:00 22.56181 108.15164 27893 ft 467 kts 286°
2026-05-05 11:00 22.56855 108.11683 27891 ft 469 kts 278°
2026-05-05 11:00 22.57018 108.08104 27893 ft 470 kts 269°
2026-05-05 11:00 22.56677 108.04583 27893 ft 472 kts 263°
2026-05-05 11:01 22.56098 108.01077 27888 ft 473 kts 262°
2026-05-05 11:01 22.55491 107.97549 27887 ft 474 kts 262°
2026-05-05 11:01 22.54884 107.94056 27875 ft 473 kts 262°
2026-05-05 11:01 22.54267 107.90527 27877 ft 474 kts 262°
2026-05-05 11:02 22.53639 107.86950 27879 ft 475 kts 262°
2026-05-05 11:02 22.53008 107.83375 27877 ft 474 kts 261°
2026-05-05 11:02 22.52379 107.79821 27872 ft 474 kts 261°
2026-05-05 11:02 22.51750 107.76272 27874 ft 475 kts 261°
2026-05-05 11:03 22.51121 107.72734 27879 ft 475 kts 261°
2026-05-05 11:03 22.50483 107.69147 27889 ft 475 kts 261°
2026-05-05 11:03 22.49847 107.65585 27889 ft 475 kts 262°
2026-05-05 11:03 22.49192 107.61915 27894 ft 476 kts 261°
2026-05-05 11:04 22.48537 107.58256 27896 ft 476 kts 261°
2026-05-05 11:04 22.47877 107.54571 27893 ft 477 kts 261°
2026-05-05 11:04 22.47235 107.50993 27896 ft 476 kts 261°
2026-05-05 11:04 22.46598 107.47452 27892 ft 476 kts 261°
2026-05-05 11:05 22.45951 107.43858 27896 ft 477 kts 261°
2026-05-05 11:05 22.45299 107.40237 27893 ft 476 kts 261°
2026-05-05 11:05 22.44666 107.36733 27897 ft 476 kts 261°
2026-05-05 11:05 22.44020 107.33159 27900 ft 476 kts 261°
2026-05-05 11:06 22.43382 107.29627 27903 ft 477 kts 261°
2026-05-05 11:06 22.42740 107.26088 27903 ft 477 kts 261°
2026-05-05 11:06 22.42096 107.22516 27898 ft 476 kts 261°
2026-05-05 11:06 22.41444 107.18874 27900 ft 479 kts 261°
2026-05-05 11:07 22.40804 107.15301 27900 ft 478 kts 261°
2026-05-05 11:07 22.40171 107.11777 27895 ft 477 kts 261°
2026-05-05 11:07 22.39535 107.08242 27894 ft 479 kts 261°
2026-05-05 11:07 22.38897 107.04698 27890 ft 479 kts 261°
2026-05-05 11:08 22.38252 107.01122 27887 ft 479 kts 261°
2026-05-05 11:08 22.37609 106.97562 27884 ft 480 kts 261°
2026-05-05 11:08 22.36962 106.93989 27884 ft 479 kts 261°
2026-05-05 11:08 22.36034 106.90417 27884 ft 483 kts 252°
2026-05-05 11:09 22.34612 106.87077 27884 ft 487 kts 243°
2026-05-05 11:09 22.32776 106.84085 27884 ft 491 kts 235°
2026-05-05 11:09 22.30456 106.81296 27893 ft 494 kts 229°
2026-05-05 11:09 22.27982 106.78638 27892 ft 495 kts 228°
2026-05-05 11:10 22.25635 106.76141 27894 ft 495 kts 228°
2026-05-05 11:10 22.23285 106.73643 27897 ft 495 kts 228°
2026-05-05 11:10 22.20729 106.70927 27898 ft 494 kts 228°
2026-05-05 11:10 22.18569 106.68632 27902 ft 494 kts 228°
2026-05-05 11:11 22.16064 106.66232 27910 ft 497 kts 223°
2026-05-05 11:11 22.13813 106.64254 27910 ft 498 kts 223°
2026-05-05 11:11 22.10984 106.61790 27909 ft 497 kts 223°
2026-05-05 11:11 22.08239 106.59401 27905 ft 497 kts 223°
2026-05-05 11:12 22.05514 106.57029 27910 ft 497 kts 223°
2026-05-05 11:12 22.02773 106.54642 27911 ft 497 kts 222°
2026-05-05 11:12 22.00056 106.52278 27910 ft 497 kts 222°
2026-05-05 11:12 21.97251 106.49838 27915 ft 498 kts 222°
2026-05-05 11:13 21.94481 106.47417 27917 ft 499 kts 223°
2026-05-05 11:13 21.91701 106.44973 27918 ft 498 kts 223°
2026-05-05 11:13 21.88977 106.42578 27920 ft 498 kts 223°
2026-05-05 11:13 21.86235 106.40169 27919 ft 499 kts 223°
2026-05-05 11:14 21.83541 106.37803 27917 ft 498 kts 223°
2026-05-05 11:14 21.80836 106.35429 27916 ft 498 kts 223°
2026-05-05 11:14 21.78077 106.33010 27921 ft 499 kts 222°
2026-05-05 11:14 21.75343 106.30613 27918 ft 499 kts 222°
2026-05-05 11:15 21.72629 106.28235 27915 ft 498 kts 222°
2026-05-05 11:15 21.69891 106.25838 27909 ft 498 kts 222°
2026-05-05 11:15 21.67155 106.23443 27902 ft 499 kts 222°
2026-05-05 11:15 21.64393 106.21027 27899 ft 498 kts 222°
2026-05-05 11:16 21.61655 106.18633 27897 ft 498 kts 222°
2026-05-05 11:16 21.58899 106.16225 27893 ft 498 kts 222°
2026-05-05 11:16 21.56153 106.13827 27889 ft 498 kts 222°
2026-05-05 11:16 21.53414 106.11436 27882 ft 498 kts 222°
2026-05-05 11:17 21.50692 106.09061 27876 ft 499 kts 222°
2026-05-05 11:17 21.47979 106.06696 27868 ft 499 kts 222°
2026-05-05 11:17 21.45236 106.04305 27865 ft 499 kts 222°
2026-05-05 11:17 21.42547 106.01962 27863 ft 499 kts 222°
2026-05-05 11:18 21.39811 105.99579 27861 ft 499 kts 222°
2026-05-05 11:18 21.37107 105.97226 27862 ft 499 kts 222°
2026-05-05 11:18 21.34384 105.94857 27860 ft 500 kts 222°
2026-05-05 11:18 21.31686 105.92511 27858 ft 500 kts 222°
2026-05-05 11:19 21.29024 105.90156 27852 ft 499 kts 225°
2026-05-05 11:19 21.26611 105.87463 27855 ft 495 kts 233°
2026-05-05 11:19 21.24631 105.84478 27854 ft 493 kts 242°
2026-05-05 11:19 21.23069 105.81189 27855 ft 490 kts 250°
2026-05-05 11:20 21.21987 105.77738 27852 ft 487 kts 257°
2026-05-05 11:20 21.21384 105.74166 27852 ft 487 kts 265°
2026-05-05 11:20 21.21228 105.70562 27857 ft 485 kts 270°
2026-05-05 11:20 21.21205 105.66969 27853 ft 485 kts 271°
2026-05-05 11:21 21.21189 105.63336 27854 ft 485 kts 271°
2026-05-05 11:21 21.21172 105.59746 27851 ft 484 kts 271°
2026-05-05 11:21 21.21153 105.56093 27851 ft 484 kts 271°
2026-05-05 11:21 21.21133 105.52499 27850 ft 485 kts 271°
2026-05-05 11:22 21.21112 105.48918 27848 ft 484 kts 271°
2026-05-05 11:22 21.21089 105.45309 27847 ft 484 kts 271°
2026-05-05 11:22 21.21066 105.41689 27847 ft 484 kts 271°
2026-05-05 11:22 21.21042 105.38077 27847 ft 484 kts 271°
2026-05-05 11:23 21.21016 105.34477 27848 ft 485 kts 270°
2026-05-05 11:23 21.20990 105.30854 27852 ft 484 kts 270°
2026-05-05 11:23 21.20963 105.27234 27852 ft 484 kts 270°
2026-05-05 11:23 21.20935 105.23608 27856 ft 484 kts 270°
2026-05-05 11:24 21.20906 105.19929 27864 ft 485 kts 270°
2026-05-05 11:24 21.20876 105.16251 27872 ft 486 kts 270°
2026-05-05 11:24 21.20845 105.12535 27881 ft 485 kts 270°
2026-05-05 11:24 21.20829 105.08865 27888 ft 486 kts 271°
2026-05-05 11:25 21.20864 105.05231 27896 ft 486 kts 271°
2026-05-05 11:25 21.20902 105.01608 27901 ft 485 kts 271°
2026-05-05 11:25 21.20939 104.97894 27905 ft 485 kts 271°
2026-05-05 11:25 21.20974 104.94260 27906 ft 484 kts 271°
2026-05-05 11:26 21.21006 104.90612 27905 ft 483 kts 271°
2026-05-05 11:26 21.21035 104.87231 27903 ft 483 kts 271°
2026-05-05 11:26 21.21065 104.83589 27903 ft 483 kts 271°
2026-05-05 11:26 21.21092 104.80214 27905 ft 482 kts 271°
2026-05-05 11:27 21.21120 104.76551 27903 ft 482 kts 271°
2026-05-05 11:27 21.21143 104.73467 27905 ft 482 kts 271°
2026-05-05 11:27 21.21162 104.70817 27914 ft 483 kts 271°
2026-05-05 11:27 21.21180 104.68204 27924 ft 483 kts 271°
2026-05-05 11:28 21.21205 104.64587 27943 ft 482 kts 272°
2026-05-05 11:28 21.21229 104.60981 27963 ft 483 kts 272°
2026-05-05 11:28 21.21251 104.57523 27979 ft 484 kts 271°
2026-05-05 11:28 21.21273 104.53829 27997 ft 483 kts 272°
2026-05-05 11:29 21.21295 104.50159 28016 ft 484 kts 272°
2026-05-05 11:29 21.21335 104.42942 28017 ft 483 kts 271°
2026-05-05 11:30 21.21373 104.35676 27995 ft 482 kts 272°
2026-05-05 11:30 21.21390 104.32039 27987 ft 482 kts 271°
2026-05-05 11:30 21.21406 104.28661 27971 ft 482 kts 271°
2026-05-05 11:30 21.21420 104.25449 27959 ft 483 kts 271°
2026-05-05 11:31 21.21435 104.21825 27951 ft 482 kts 271°
2026-05-05 11:31 21.21450 104.18170 27953 ft 481 kts 271°
2026-05-05 11:31 21.21464 104.14520 27954 ft 482 kts 271°
2026-05-05 11:31 21.21477 104.10945 27957 ft 482 kts 271°
2026-05-05 11:32 21.21489 104.07307 27964 ft 482 kts 271°
2026-05-05 11:32 21.21451 104.03735 27969 ft 483 kts 268°
2026-05-05 11:32 21.21130 104.00057 27986 ft 483 kts 265°
2026-05-05 11:32 21.20765 103.96448 27991 ft 482 kts 265°
2026-05-05 11:33 21.20404 103.92905 27991 ft 482 kts 265°
2026-05-05 11:33 21.20037 103.89299 27991 ft 483 kts 265°
2026-05-05 11:33 21.19674 103.85752 27990 ft 483 kts 265°
2026-05-05 11:33 21.19305 103.82143 27993 ft 483 kts 265°
2026-05-05 11:34 21.18943 103.78602 27999 ft 482 kts 265°
2026-05-05 11:34 21.18207 103.71433 28007 ft 483 kts 265°
2026-05-05 11:35 21.17466 103.64241 28004 ft 483 kts 265°
2026-05-05 11:35 21.17094 103.60638 27997 ft 484 kts 265°
2026-05-05 11:35 21.16720 103.57024 27996 ft 484 kts 265°
2026-05-05 11:35 21.16347 103.53429 27995 ft 483 kts 265°
2026-05-05 11:36 21.15976 103.49857 27992 ft 483 kts 265°
2026-05-05 11:36 21.15594 103.46185 27993 ft 485 kts 265°
2026-05-05 11:36 21.15217 103.42574 27994 ft 484 kts 265°
2026-05-05 11:36 21.14837 103.38944 27998 ft 484 kts 265°
2026-05-05 11:37 21.14455 103.35299 28003 ft 484 kts 265°
2026-05-05 11:37 21.13690 103.28022 28016 ft 483 kts 265°
2026-05-05 11:38 21.12923 103.20754 28020 ft 484 kts 265°
2026-05-05 11:38 21.12157 103.13528 28017 ft 484 kts 265°
2026-05-05 11:39 21.11397 103.06385 28016 ft 485 kts 265°
2026-05-05 11:39 21.10629 102.99197 28012 ft 486 kts 265°
2026-05-05 11:40 21.09860 102.92030 27999 ft 486 kts 265°
2026-05-05 11:40 21.09475 102.88449 27994 ft 486 kts 265°
2026-05-05 11:40 21.09087 102.84851 27987 ft 485 kts 265°
2026-05-05 11:40 21.08698 102.81255 27978 ft 486 kts 265°
2026-05-05 11:41 21.08312 102.77689 27969 ft 486 kts 265°
2026-05-05 11:41 21.07920 102.74079 27961 ft 486 kts 265°
2026-05-05 11:41 21.07530 102.70496 27963 ft 486 kts 265°
2026-05-05 11:41 21.07135 102.66868 27971 ft 486 kts 265°
2026-05-05 11:42 21.06745 102.63296 27981 ft 486 kts 265°
2026-05-05 11:42 21.06353 102.59711 27992 ft 485 kts 265°
2026-05-05 11:42 21.05962 102.56142 28003 ft 484 kts 265°
2026-05-05 11:43 21.05172 102.48955 28017 ft 485 kts 265°
2026-05-05 11:43 21.04385 102.41820 28021 ft 485 kts 265°
2026-05-05 11:44 21.03590 102.34640 28016 ft 486 kts 264°
2026-05-05 11:44 21.02788 102.27428 28020 ft 486 kts 264°
2026-05-05 11:45 21.01986 102.20246 28021 ft 487 kts 264°
2026-05-05 11:45 21.01199 102.13228 28023 ft 488 kts 264°
2026-05-05 11:46 21.00404 102.06159 28025 ft 486 kts 264°
2026-05-05 11:46 20.99653 101.99508 28028 ft 486 kts 264°
2026-05-05 11:47 20.98834 101.92274 28025 ft 486 kts 264°
2026-05-05 11:47 20.98016 101.85089 28018 ft 486 kts 264°
2026-05-05 11:48 20.96786 101.74321 28016 ft 487 kts 264°
2026-05-05 11:48 20.95976 101.67271 28012 ft 486 kts 264°
2026-05-05 11:49 20.95142 101.60029 28006 ft 487 kts 264°
2026-05-05 11:49 20.94307 101.52814 27997 ft 486 kts 264°
2026-05-05 11:50 20.93470 101.45601 28001 ft 488 kts 264°
2026-05-05 11:50 20.92652 101.38583 28002 ft 488 kts 264°
2026-05-05 11:51 20.91810 101.31387 28006 ft 487 kts 264°
2026-05-05 11:51 20.90998 101.24470 28012 ft 487 kts 264°
2026-05-05 11:52 20.90140 101.17189 28021 ft 487 kts 264°
2026-05-05 11:52 20.89274 101.09868 28021 ft 488 kts 264°
2026-05-05 11:53 20.88413 101.02612 28026 ft 488 kts 264°
2026-05-05 11:53 20.87557 100.95428 28022 ft 488 kts 264°
2026-05-05 11:54 20.86689 100.88162 28014 ft 489 kts 264°
2026-05-05 11:54 20.85823 100.80948 28008 ft 489 kts 264°
2026-05-05 11:55 20.84953 100.73723 28012 ft 488 kts 264°
2026-05-05 11:55 20.84083 100.66525 28016 ft 488 kts 264°
2026-05-05 11:56 20.83209 100.59322 28016 ft 487 kts 264°
2026-05-05 11:56 20.82331 100.52110 28012 ft 488 kts 264°
2026-05-05 11:57 20.82321 100.44898 28005 ft 486 kts 279°
2026-05-05 11:57 20.83058 100.41370 28000 ft 487 kts 286°
2026-05-05 11:57 20.83998 100.37908 27994 ft 486 kts 287°
2026-05-05 11:58 20.84950 100.34453 27991 ft 486 kts 286°
2026-05-05 11:58 20.85905 100.30975 27989 ft 485 kts 286°
2026-05-05 11:58 20.86836 100.27573 27980 ft 486 kts 286°
2026-05-05 11:58 20.87774 100.24132 27982 ft 486 kts 286°
2026-05-05 11:59 20.88725 100.20634 27974 ft 487 kts 286°
2026-05-05 11:59 20.89674 100.17139 27981 ft 487 kts 286°
2026-05-05 11:59 20.90618 100.13656 27985 ft 487 kts 286°
2026-05-05 11:59 20.91561 100.10171 27984 ft 487 kts 286°
2026-05-05 12:00 20.92495 100.06716 27990 ft 487 kts 286°
2026-05-05 12:00 20.93429 100.03256 27998 ft 488 kts 286°
2026-05-05 12:00 20.95316 99.96252 28001 ft 486 kts 286°
2026-05-05 12:01 20.97165 99.89376 28002 ft 486 kts 286°
2026-05-05 12:01 20.99029 99.82433 28015 ft 484 kts 286°
2026-05-05 12:02 21.00888 99.75493 28031 ft 486 kts 286°
2026-05-05 12:02 21.02744 99.68552 28049 ft 485 kts 286°
2026-05-05 12:03 21.04593 99.61626 28068 ft 484 kts 286°
2026-05-05 12:03 21.06449 99.54662 28083 ft 483 kts 285°
2026-05-05 12:04 21.08291 99.47736 28090 ft 483 kts 285°
2026-05-05 12:04 21.10128 99.40818 28077 ft 484 kts 285°
2026-05-05 12:05 21.11972 99.33860 28068 ft 484 kts 285°
2026-05-05 12:05 21.13776 99.27042 28064 ft 483 kts 285°
2026-05-05 12:06 21.15600 99.20136 28059 ft 483 kts 285°
2026-05-05 12:06 21.17426 99.13208 28054 ft 482 kts 285°
2026-05-05 12:07 21.19250 99.06280 28046 ft 483 kts 285°
2026-05-05 12:07 21.21070 98.99351 28038 ft 483 kts 285°
2026-05-05 12:08 21.22878 98.92454 28041 ft 482 kts 285°
2026-05-05 12:08 21.24690 98.85532 28052 ft 482 kts 285°
2026-05-05 12:09 21.26499 98.78611 28061 ft 480 kts 285°
2026-05-05 12:09 21.28300 98.71705 28053 ft 482 kts 285°
2026-05-05 12:10 21.30096 98.64806 28025 ft 481 kts 285°
2026-05-05 12:10 21.31899 98.57867 28006 ft 482 kts 285°
2026-05-05 12:11 21.32807 98.54366 27997 ft 482 kts 285°
2026-05-05 12:11 21.33712 98.50877 27988 ft 481 kts 285°
2026-05-05 12:11 21.34613 98.47401 27982 ft 481 kts 285°
2026-05-05 12:11 21.35504 98.43957 27982 ft 480 kts 285°
2026-05-05 12:12 21.36402 98.40485 27983 ft 480 kts 285°
2026-05-05 12:12 21.37302 98.37001 27982 ft 481 kts 285°
2026-05-05 12:12 21.38201 98.33517 27986 ft 479 kts 284°
2026-05-05 12:12 21.39095 98.30050 27989 ft 478 kts 284°
2026-05-05 12:13 21.39990 98.26577 27987 ft 480 kts 284°
2026-05-05 12:13 21.40886 98.23092 27989 ft 479 kts 284°
2026-05-05 12:13 21.41765 98.19675 27993 ft 479 kts 284°
2026-05-05 12:13 21.42657 98.16203 27998 ft 479 kts 284°
2026-05-05 12:14 21.44417 98.09342 28010 ft 479 kts 284°
2026-05-05 12:14 21.46175 98.02477 28026 ft 478 kts 284°
2026-05-05 12:15 21.47942 97.95564 28038 ft 478 kts 284°
2026-05-05 12:15 21.49715 97.88617 28032 ft 479 kts 284°
2026-05-05 12:16 21.51472 97.81718 28026 ft 478 kts 284°
2026-05-05 12:16 21.53233 97.74790 28017 ft 479 kts 284°
2026-05-05 12:17 21.54976 97.67918 28031 ft 477 kts 284°
2026-05-05 12:17 21.56727 97.61006 28045 ft 478 kts 284°
2026-05-05 12:18 21.58481 97.54065 28057 ft 476 kts 284°
2026-05-05 12:18 21.60222 97.47165 28063 ft 477 kts 284°
2026-05-05 12:19 21.61955 97.40284 28044 ft 477 kts 284°
2026-05-05 12:19 21.63694 97.33363 28028 ft 478 kts 284°
2026-05-05 12:20 21.65433 97.26432 28016 ft 479 kts 284°
2026-05-05 12:20 21.67158 97.19544 28002 ft 478 kts 284°
2026-05-05 12:21 21.68026 97.16074 27999 ft 478 kts 284°
2026-05-05 12:21 21.68893 97.12600 28000 ft 478 kts 284°
2026-05-05 12:21 21.70611 97.05714 27994 ft 476 kts 284°
2026-05-05 12:22 21.71460 97.02303 27992 ft 476 kts 284°
2026-05-05 12:22 21.72320 96.98851 27989 ft 476 kts 284°
2026-05-05 12:22 21.73177 96.95403 27991 ft 475 kts 284°
2026-05-05 12:22 21.74037 96.91941 27993 ft 476 kts 284°
2026-05-05 12:23 21.74896 96.88478 27987 ft 476 kts 284°
2026-05-05 12:23 21.75750 96.85036 27990 ft 475 kts 284°
2026-05-05 12:23 21.76596 96.81621 27999 ft 476 kts 284°
2026-05-05 12:23 21.77448 96.78175 27991 ft 476 kts 284°
2026-05-05 12:24 21.78304 96.74715 27993 ft 475 kts 284°
2026-05-05 12:24 21.79146 96.71302 27983 ft 476 kts 284°
2026-05-05 12:24 21.80002 96.67835 27955 ft 476 kts 284°
2026-05-05 12:24 21.80844 96.64420 27941 ft 476 kts 284°
2026-05-05 12:25 21.81695 96.60964 27919 ft 477 kts 284°
2026-05-05 12:25 21.82543 96.57514 27897 ft 477 kts 284°
2026-05-05 12:25 21.83390 96.54070 27891 ft 477 kts 284°
2026-05-05 12:25 21.84245 96.50589 27884 ft 477 kts 284°
2026-05-05 12:26 21.85091 96.47138 27877 ft 477 kts 284°
2026-05-05 12:26 21.85934 96.43699 27864 ft 477 kts 284°
2026-05-05 12:26 21.86783 96.40233 27870 ft 476 kts 284°
2026-05-05 12:26 21.87629 96.36771 27861 ft 477 kts 284°
2026-05-05 12:27 21.88467 96.33345 27865 ft 477 kts 283°
2026-05-05 12:27 21.89231 96.30213 27859 ft 477 kts 283°
2026-05-05 12:27 21.90041 96.26892 27862 ft 477 kts 283°
2026-05-05 12:27 21.90837 96.23626 27857 ft 476 kts 283°
2026-05-05 12:28 21.91598 96.20504 27847 ft 476 kts 283°
2026-05-05 12:28 21.92252 96.17815 27840 ft 476 kts 283°
2026-05-05 12:28 21.93050 96.14477 27815 ft 475 kts 281°
2026-05-05 12:28 21.93563 96.10953 27804 ft 475 kts 275°
2026-05-05 12:29 21.93855 96.07850 27790 ft 475 kts 275°
2026-05-05 12:29 21.94177 96.04253 27770 ft 475 kts 275°
2026-05-05 12:29 21.94489 96.00727 27747 ft 475 kts 275°
2026-05-05 12:29 21.94802 95.97168 27737 ft 475 kts 275°
2026-05-05 12:30 21.95116 95.93579 27741 ft 475 kts 275°
2026-05-05 12:30 21.95424 95.90042 27743 ft 475 kts 275°
2026-05-05 12:30 21.95739 95.86415 27744 ft 475 kts 275°
2026-05-05 12:30 21.96048 95.82844 27748 ft 476 kts 275°
2026-05-05 12:31 21.96354 95.79282 27748 ft 476 kts 275°
2026-05-05 12:31 21.96660 95.75725 27748 ft 477 kts 275°
2026-05-05 12:31 21.96969 95.72121 27748 ft 477 kts 275°
2026-05-05 12:31 21.97272 95.68569 27745 ft 477 kts 275°
2026-05-05 12:32 21.97580 95.64956 27743 ft 477 kts 275°
2026-05-05 12:32 21.97884 95.61369 27736 ft 478 kts 275°
2026-05-05 12:32 21.98189 95.57766 27736 ft 478 kts 275°
2026-05-05 12:32 21.98495 95.54141 27735 ft 478 kts 275°
2026-05-05 12:33 21.98795 95.50584 27735 ft 478 kts 275°
2026-05-05 12:33 21.99093 95.47038 27738 ft 477 kts 275°
2026-05-05 12:33 21.99393 95.43462 27738 ft 477 kts 275°
2026-05-05 12:33 21.99693 95.39871 27740 ft 478 kts 275°
2026-05-05 12:34 21.99989 95.36315 27739 ft 476 kts 275°
2026-05-05 12:34 22.00286 95.32748 27745 ft 477 kts 274°
2026-05-05 12:34 22.00585 95.29140 27747 ft 476 kts 274°
2026-05-05 12:34 22.00872 95.25668 27745 ft 477 kts 274°
2026-05-05 12:35 22.01166 95.22105 27743 ft 477 kts 274°
2026-05-05 12:35 22.01462 95.18506 27746 ft 477 kts 274°
2026-05-05 12:35 22.01711 95.15466 27748 ft 477 kts 274°
2026-05-05 12:35 22.01886 95.13333 27751 ft 477 kts 274°
2026-05-05 12:36 22.02137 95.10252 27750 ft 476 kts 274°
2026-05-05 12:36 22.02429 95.06669 27751 ft 477 kts 274°
2026-05-05 12:36 22.02719 95.03101 27753 ft 477 kts 274°
2026-05-05 12:36 22.03012 94.99494 27754 ft 477 kts 274°
2026-05-05 12:37 22.03298 94.95957 27755 ft 477 kts 274°
2026-05-05 12:37 22.03588 94.92361 27757 ft 479 kts 274°
2026-05-05 12:37 22.03876 94.88778 27756 ft 478 kts 274°
2026-05-05 12:37 22.04167 94.85148 27760 ft 478 kts 274°
2026-05-05 12:38 22.04450 94.81606 27760 ft 477 kts 274°
2026-05-05 12:38 22.04738 94.78001 27763 ft 477 kts 274°
2026-05-05 12:38 22.05026 94.74377 27764 ft 478 kts 274°
2026-05-05 12:38 22.05312 94.70776 27768 ft 477 kts 274°
2026-05-05 12:39 22.05598 94.67158 27773 ft 476 kts 274°
2026-05-05 12:39 22.05880 94.63575 27778 ft 476 kts 274°
2026-05-05 12:39 22.06158 94.60038 27784 ft 476 kts 274°
2026-05-05 12:39 22.06440 94.56447 27789 ft 476 kts 274°
2026-05-05 12:40 22.06723 94.52825 27795 ft 477 kts 274°
2026-05-05 12:40 22.07001 94.49259 27798 ft 475 kts 274°
2026-05-05 12:40 22.07282 94.45647 27808 ft 475 kts 274°
2026-05-05 12:40 22.07560 94.42059 27820 ft 476 kts 274°
2026-05-05 12:41 22.07838 94.38469 27829 ft 475 kts 274°
2026-05-05 12:41 22.08113 94.34895 27841 ft 474 kts 274°
2026-05-05 12:41 22.08388 94.31320 27860 ft 475 kts 274°
2026-05-05 12:41 22.08656 94.27820 27868 ft 475 kts 274°
2026-05-05 12:42 22.08930 94.24243 27879 ft 475 kts 274°
2026-05-05 12:42 22.09199 94.20714 27876 ft 475 kts 273°
2026-05-05 12:42 22.09470 94.17145 27871 ft 475 kts 274°
2026-05-05 12:42 22.09739 94.13593 27861 ft 475 kts 274°
2026-05-05 12:43 22.10005 94.10077 27852 ft 475 kts 274°
2026-05-05 12:43 22.10274 94.06510 27844 ft 475 kts 274°
2026-05-05 12:43 22.10541 94.02945 27837 ft 475 kts 273°
2026-05-05 12:43 22.10810 93.99351 27829 ft 476 kts 273°
2026-05-05 12:44 22.11075 93.95812 27832 ft 476 kts 273°
2026-05-05 12:44 22.11340 93.92248 27851 ft 475 kts 274°
2026-05-05 12:44 22.11605 93.88683 27874 ft 476 kts 273°
2026-05-05 12:44 22.11865 93.85169 27896 ft 476 kts 273°
2026-05-05 12:45 22.12128 93.81599 27903 ft 474 kts 273°
2026-05-05 12:45 22.12390 93.78044 27933 ft 474 kts 273°
2026-05-05 12:45 22.12648 93.74531 27942 ft 474 kts 273°
2026-05-05 12:45 22.12909 93.70955 27969 ft 474 kts 273°
2026-05-05 12:46 22.13165 93.67440 27992 ft 474 kts 273°
2026-05-05 12:46 22.13424 93.63883 28017 ft 474 kts 273°
2026-05-05 12:46 22.13938 93.56789 28055 ft 473 kts 273°
2026-05-05 12:47 22.14445 93.49741 28102 ft 472 kts 273°
2026-05-05 12:47 22.14949 93.42693 28115 ft 472 kts 273°
2026-05-05 12:48 22.15449 93.35661 28112 ft 471 kts 274°
2026-05-05 12:48 22.15948 93.28585 28117 ft 472 kts 273°
2026-05-05 12:49 22.16444 93.21520 28104 ft 472 kts 273°
2026-05-05 12:49 22.16936 93.14477 28084 ft 473 kts 273°
2026-05-05 12:50 22.17426 93.07402 28057 ft 472 kts 273°
2026-05-05 12:50 22.17914 93.00327 28032 ft 472 kts 273°
2026-05-05 12:51 22.18397 92.93276 27986 ft 473 kts 273°
2026-05-05 12:51 22.18638 92.89731 27961 ft 472 kts 273°
2026-05-05 12:51 22.18878 92.86196 27938 ft 471 kts 273°
2026-05-05 12:52 22.19115 92.82704 27917 ft 471 kts 273°
2026-05-05 12:52 22.19354 92.79163 27893 ft 470 kts 273°
2026-05-05 12:52 22.19591 92.75632 27877 ft 471 kts 273°
2026-05-05 12:52 22.19827 92.72122 27864 ft 469 kts 272°
2026-05-05 12:53 22.20060 92.68622 27864 ft 470 kts 273°
2026-05-05 12:53 22.20295 92.65096 27865 ft 470 kts 273°
2026-05-05 12:53 22.20519 92.61584 27866 ft 470 kts 272°
2026-05-05 12:53 22.20735 92.58044 27863 ft 470 kts 272°
2026-05-05 12:54 22.21161 92.51039 27861 ft 469 kts 272°
2026-05-05 12:54 22.21372 92.47553 27860 ft 468 kts 272°
2026-05-05 12:54 22.21585 92.44029 27859 ft 470 kts 272°
2026-05-05 12:55 22.21798 92.40498 27851 ft 469 kts 272°
2026-05-05 12:55 22.22007 92.37016 27847 ft 470 kts 272°
2026-05-05 12:55 22.22221 92.33450 27850 ft 470 kts 272°
2026-05-05 12:55 22.22429 92.29962 27846 ft 469 kts 272°
2026-05-05 12:56 22.22639 92.26447 27840 ft 468 kts 272°
2026-05-05 12:56 22.22887 92.22941 27838 ft 469 kts 273°
2026-05-05 12:56 22.23148 92.19411 27835 ft 470 kts 273°
2026-05-05 12:56 22.23405 92.15900 27834 ft 468 kts 273°
2026-05-05 12:57 22.23658 92.12425 27830 ft 469 kts 273°
2026-05-05 12:57 22.23913 92.08910 27828 ft 468 kts 273°
2026-05-05 12:57 22.24167 92.05390 27828 ft 469 kts 273°
2026-05-05 12:57 22.24418 92.01883 27823 ft 468 kts 273°
2026-05-05 12:58 22.24668 91.98388 27819 ft 468 kts 273°
2026-05-05 12:58 22.24916 91.94903 27817 ft 469 kts 273°
2026-05-05 12:58 22.25167 91.91370 27811 ft 469 kts 273°
2026-05-05 12:58 22.25415 91.87861 27810 ft 468 kts 273°
2026-05-05 12:59 22.25659 91.84388 27811 ft 468 kts 273°
2026-05-05 12:59 22.25928 91.80873 27810 ft 469 kts 275°
2026-05-05 12:59 22.26326 91.77433 27812 ft 470 kts 276°
2026-05-05 13:00 22.27170 91.70420 27816 ft 470 kts 276°
2026-05-05 13:00 22.27579 91.66966 27815 ft 469 kts 275°
2026-05-05 13:01 22.28803 91.56474 27812 ft 468 kts 275°
2026-05-05 13:01 22.29209 91.52957 27812 ft 468 kts 275°
2026-05-05 13:01 22.29607 91.49494 27811 ft 468 kts 275°
2026-05-05 13:01 22.30009 91.45992 27807 ft 468 kts 275°
2026-05-05 13:02 22.30405 91.42526 27812 ft 468 kts 275°
2026-05-05 13:02 22.30804 91.39025 27808 ft 467 kts 275°
2026-05-05 13:02 22.31215 91.35531 27806 ft 468 kts 276°
2026-05-05 13:02 22.31652 91.32028 27825 ft 468 kts 276°
2026-05-05 13:03 22.32089 91.28539 27822 ft 468 kts 276°
2026-05-05 13:03 22.32520 91.25082 27822 ft 468 kts 276°
2026-05-05 13:03 22.32955 91.21575 27823 ft 468 kts 276°
2026-05-05 13:03 22.33386 91.18095 27824 ft 468 kts 275°
2026-05-05 13:04 22.33818 91.14600 27819 ft 468 kts 275°
2026-05-05 13:04 22.34245 91.11131 27818 ft 467 kts 275°
2026-05-05 13:04 22.34671 91.07667 27818 ft 467 kts 275°
2026-05-05 13:04 22.35107 91.04109 27824 ft 467 kts 275°
2026-05-05 13:05 22.35533 91.00628 27814 ft 466 kts 275°
2026-05-05 13:05 22.35957 90.97155 27821 ft 466 kts 275°
2026-05-05 13:05 22.36381 90.93681 27823 ft 466 kts 276°
2026-05-05 13:05 22.36788 90.90333 27819 ft 467 kts 275°
2026-05-05 13:06 22.37214 90.86822 27818 ft 466 kts 276°
2026-05-05 13:06 22.37634 90.83365 27818 ft 466 kts 275°
2026-05-05 13:06 22.38055 90.79881 27816 ft 467 kts 275°
2026-05-05 13:06 22.38478 90.76376 27814 ft 467 kts 275°
2026-05-05 13:07 22.38902 90.72863 27813 ft 466 kts 275°
2026-05-05 13:07 22.39320 90.69387 27820 ft 467 kts 275°
2026-05-05 13:07 22.39736 90.65925 27811 ft 466 kts 275°
2026-05-05 13:07 22.40155 90.62426 27807 ft 467 kts 275°
2026-05-05 13:08 22.40572 90.58939 27810 ft 466 kts 275°
2026-05-05 13:08 22.40983 90.55497 27810 ft 466 kts 275°
2026-05-05 13:08 22.41401 90.51993 27811 ft 467 kts 275°
2026-05-05 13:08 22.41814 90.48520 27811 ft 466 kts 275°
2026-05-05 13:09 22.42226 90.45050 27808 ft 465 kts 275°
2026-05-05 13:09 22.42636 90.41592 27806 ft 465 kts 276°
2026-05-05 13:09 22.43049 90.38105 27805 ft 465 kts 275°
2026-05-05 13:09 22.43465 90.34584 27809 ft 465 kts 275°
2026-05-05 13:10 22.43870 90.31149 27818 ft 464 kts 275°
2026-05-05 13:10 22.44280 90.27657 27812 ft 465 kts 275°
2026-05-05 13:10 22.44685 90.24207 27815 ft 464 kts 275°
2026-05-05 13:10 22.45093 90.20729 27812 ft 465 kts 275°
2026-05-05 13:11 22.45500 90.17251 27810 ft 464 kts 275°
2026-05-05 13:11 22.45903 90.13799 27818 ft 464 kts 275°
2026-05-05 13:11 22.46310 90.10312 27808 ft 464 kts 275°
2026-05-05 13:11 22.46712 90.06850 27808 ft 464 kts 275°
2026-05-05 13:12 22.47111 90.03419 27809 ft 464 kts 275°
2026-05-05 13:12 22.47514 89.99938 27815 ft 465 kts 275°
2026-05-05 13:12 22.47917 89.96452 27808 ft 465 kts 275°
2026-05-05 13:12 22.48320 89.92966 27808 ft 464 kts 275°
2026-05-05 13:13 22.48719 89.89497 27802 ft 464 kts 275°
2026-05-05 13:13 22.49116 89.86047 27805 ft 464 kts 275°
2026-05-05 13:13 22.49512 89.82597 27804 ft 464 kts 275°
2026-05-05 13:13 22.49914 89.79089 27805 ft 464 kts 275°
2026-05-05 13:14 22.50310 89.75629 27798 ft 463 kts 275°
2026-05-05 13:14 22.50703 89.72179 27798 ft 464 kts 275°
2026-05-05 13:14 22.51102 89.68677 27800 ft 464 kts 275°
2026-05-05 13:14 22.51494 89.65232 27801 ft 464 kts 275°
2026-05-05 13:15 22.51886 89.61774 27798 ft 465 kts 275°
2026-05-05 13:15 22.52279 89.58307 27803 ft 464 kts 275°
2026-05-05 13:15 22.52677 89.54785 27801 ft 464 kts 275°
2026-05-05 13:15 22.53065 89.51344 27799 ft 463 kts 275°
2026-05-05 13:16 22.53455 89.47884 27802 ft 464 kts 275°
2026-05-05 13:16 22.53848 89.44385 27801 ft 464 kts 275°
2026-05-05 13:16 22.54238 89.40911 27799 ft 463 kts 275°
2026-05-05 13:16 22.54625 89.37451 27800 ft 465 kts 275°
2026-05-05 13:17 22.55011 89.33992 27805 ft 464 kts 275°
2026-05-05 13:17 22.55405 89.30461 27813 ft 462 kts 275°
2026-05-05 13:17 22.55790 89.26996 27812 ft 463 kts 275°
2026-05-05 13:17 22.56173 89.23550 27812 ft 464 kts 275°
2026-05-05 13:18 22.56557 89.20079 27812 ft 464 kts 275°
2026-05-05 13:18 22.56945 89.16578 27810 ft 464 kts 275°
2026-05-05 13:18 22.57322 89.13157 27809 ft 463 kts 275°
2026-05-05 13:18 22.57705 89.09684 27808 ft 463 kts 275°
2026-05-05 13:19 22.58087 89.06207 27810 ft 464 kts 275°
2026-05-05 13:19 22.58466 89.02749 27808 ft 464 kts 275°
2026-05-05 13:19 22.58847 88.99267 27807 ft 462 kts 275°
2026-05-05 13:19 22.59225 88.95815 27809 ft 462 kts 275°
2026-05-05 13:20 22.59624 88.92341 27802 ft 462 kts 277°
2026-05-05 13:20 22.60192 88.88927 27806 ft 462 kts 278°
2026-05-05 13:20 22.60791 88.85507 27807 ft 462 kts 278°
2026-05-05 13:20 22.61386 88.82076 27805 ft 463 kts 278°
2026-05-05 13:21 22.61973 88.78661 27807 ft 464 kts 278°
2026-05-05 13:21 22.62560 88.75221 27802 ft 462 kts 278°
2026-05-05 13:21 22.63140 88.71795 27805 ft 463 kts 278°
2026-05-05 13:21 22.63722 88.68344 27804 ft 462 kts 278°
2026-05-05 13:22 22.64299 88.64909 27805 ft 462 kts 278°
2026-05-05 13:22 22.64871 88.61494 27808 ft 463 kts 278°
2026-05-05 13:22 22.65444 88.58065 27810 ft 461 kts 278°
2026-05-05 13:22 22.66017 88.54621 27809 ft 461 kts 278°
2026-05-05 13:23 22.66586 88.51202 27805 ft 461 kts 278°
2026-05-05 13:23 22.67189 88.47771 27796 ft 461 kts 281°
2026-05-05 13:23 22.68182 88.44449 27803 ft 466 kts 290°
2026-05-05 13:23 22.69663 88.41303 27804 ft 470 kts 297°
2026-05-05 13:24 22.71375 88.38277 27806 ft 470 kts 298°
2026-05-05 13:24 22.73097 88.35281 27802 ft 469 kts 298°
2026-05-05 13:24 22.74841 88.32243 27816 ft 470 kts 297°
2026-05-05 13:24 22.76578 88.29216 27811 ft 470 kts 297°
2026-05-05 13:25 22.78291 88.26227 27803 ft 469 kts 297°
2026-05-05 13:25 22.80008 88.23228 27807 ft 467 kts 297°
2026-05-05 13:25 22.81735 88.20209 27802 ft 467 kts 297°
2026-05-05 13:25 22.83452 88.17207 27803 ft 467 kts 297°
2026-05-05 13:26 22.85171 88.14197 27801 ft 467 kts 297°
2026-05-05 13:26 22.86891 88.11185 27802 ft 467 kts 297°
2026-05-05 13:26 22.88604 88.08184 27801 ft 465 kts 297°
2026-05-05 13:26 22.90305 88.05202 27799 ft 464 kts 297°
2026-05-05 13:27 22.91994 88.02236 27802 ft 465 kts 297°
2026-05-05 13:27 22.93706 87.99230 27807 ft 466 kts 297°
2026-05-05 13:27 22.95424 87.96211 27813 ft 465 kts 297°
2026-05-05 13:27 22.97109 87.93251 27811 ft 464 kts 297°
2026-05-05 13:28 22.98833 87.90218 27809 ft 466 kts 297°
2026-05-05 13:28 23.00530 87.87230 27808 ft 465 kts 297°
2026-05-05 13:28 23.02220 87.84254 27816 ft 466 kts 297°
2026-05-05 13:28 23.03945 87.81215 27816 ft 464 kts 297°
2026-05-05 13:29 23.05637 87.78232 27820 ft 464 kts 297°
2026-05-05 13:29 23.07320 87.75263 27816 ft 465 kts 297°
2026-05-05 13:29 23.09034 87.72238 27803 ft 465 kts 297°
2026-05-05 13:29 23.10731 87.69240 27802 ft 466 kts 297°
2026-05-05 13:30 23.12455 87.66194 27802 ft 464 kts 297°
2026-05-05 13:30 23.14154 87.63188 27804 ft 464 kts 297°
2026-05-05 13:30 23.15849 87.60190 27800 ft 466 kts 297°
2026-05-05 13:30 23.17546 87.57185 27799 ft 465 kts 297°
2026-05-05 13:31 23.19252 87.54162 27795 ft 466 kts 297°
2026-05-05 13:31 23.20970 87.51117 27792 ft 466 kts 297°
2026-05-05 13:31 23.22674 87.48096 27783 ft 466 kts 297°
2026-05-05 13:31 23.24385 87.45059 27786 ft 466 kts 297°
2026-05-05 13:32 23.26079 87.42052 27786 ft 466 kts 297°
2026-05-05 13:32 23.27791 87.39011 27790 ft 465 kts 297°
2026-05-05 13:32 23.29488 87.35993 27790 ft 467 kts 297°
2026-05-05 13:32 23.31212 87.32925 27802 ft 469 kts 297°
2026-05-05 13:33 23.32900 87.29922 27807 ft 466 kts 297°
2026-05-05 13:33 23.34614 87.26868 27811 ft 470 kts 297°
2026-05-05 13:33 23.36328 87.23814 27804 ft 469 kts 297°
2026-05-05 13:33 23.38036 87.20769 27808 ft 468 kts 297°
2026-05-05 13:34 23.39762 87.17690 27811 ft 467 kts 297°
2026-05-05 13:34 23.41457 87.14664 27805 ft 467 kts 297°
2026-05-05 13:34 23.43173 87.11597 27810 ft 471 kts 297°
2026-05-05 13:34 23.44876 87.08553 27808 ft 471 kts 297°
2026-05-05 13:35 23.46613 87.05447 27812 ft 469 kts 297°
2026-05-05 13:35 23.48325 87.02383 27805 ft 471 kts 297°
2026-05-05 13:35 23.49973 86.99440 27807 ft 470 kts 297°
2026-05-05 13:35 23.51680 86.96391 27812 ft 468 kts 297°
2026-05-05 13:36 23.53403 86.93310 27811 ft 470 kts 297°
2026-05-05 13:36 23.55126 86.90228 27809 ft 475 kts 297°
2026-05-05 13:36 23.56863 86.87119 27811 ft 475 kts 297°
2026-05-05 13:36 23.58606 86.83997 27814 ft 476 kts 297°
2026-05-05 13:37 23.60381 86.80818 27816 ft 474 kts 297°
2026-05-05 13:37 23.62111 86.77716 27819 ft 473 kts 297°
2026-05-05 13:37 23.63852 86.74593 27819 ft 473 kts 296°
2026-05-05 13:37 23.65594 86.71464 27817 ft 476 kts 297°
2026-05-05 13:38 23.67348 86.68311 27823 ft 477 kts 297°
2026-05-05 13:38 23.69094 86.65173 27828 ft 474 kts 297°
2026-05-05 13:38 23.70833 86.62048 27828 ft 474 kts 297°
2026-05-05 13:38 23.72566 86.58927 27831 ft 475 kts 296°
2026-05-05 13:39 23.74304 86.55796 27829 ft 477 kts 297°
2026-05-05 13:39 23.76052 86.52645 27830 ft 477 kts 297°
2026-05-05 13:39 23.77781 86.49528 27835 ft 476 kts 297°
2026-05-05 13:39 23.79537 86.46358 27831 ft 477 kts 297°
2026-05-05 13:40 23.81301 86.43174 27833 ft 478 kts 296°
2026-05-05 13:40 23.83154 86.40090 27836 ft 483 kts 300°
2026-05-05 13:40 23.85141 86.36989 27833 ft 484 kts 300°
2026-05-05 13:40 23.87098 86.33935 27839 ft 483 kts 300°
2026-05-05 13:41 23.89061 86.30859 27851 ft 484 kts 300°
2026-05-05 13:41 23.90965 86.27866 27851 ft 481 kts 300°
2026-05-05 13:41 23.92900 86.24817 27848 ft 483 kts 300°
2026-05-05 13:41 23.94850 86.21736 27857 ft 485 kts 300°
2026-05-05 13:42 23.96828 86.18607 27851 ft 483 kts 300°
2026-05-05 13:42 23.98754 86.15556 27853 ft 484 kts 299°
2026-05-05 13:42 24.00728 86.12427 27853 ft 483 kts 299°
2026-05-05 13:42 24.02672 86.09340 27849 ft 484 kts 299°
2026-05-05 13:43 24.04587 86.06296 27854 ft 486 kts 299°
2026-05-05 13:43 24.06547 86.03181 27854 ft 484 kts 300°
2026-05-05 13:43 24.08476 86.00111 27854 ft 485 kts 299°
2026-05-05 13:43 24.10407 85.97034 27861 ft 485 kts 299°
2026-05-05 13:44 24.12342 85.93951 27863 ft 485 kts 299°
2026-05-05 13:44 24.14284 85.90854 27872 ft 485 kts 299°
2026-05-05 13:44 24.16222 85.87761 27875 ft 486 kts 299°
2026-05-05 13:44 24.18144 85.84691 27875 ft 487 kts 300°
2026-05-05 13:45 24.20088 85.81585 27876 ft 487 kts 299°
2026-05-05 13:45 24.22002 85.78524 27874 ft 487 kts 299°
2026-05-05 13:45 24.23928 85.75443 27877 ft 488 kts 300°
2026-05-05 13:45 24.25832 85.72397 27863 ft 485 kts 300°
2026-05-05 13:46 24.27754 85.69317 27866 ft 488 kts 300°
2026-05-05 13:46 24.29661 85.66259 27861 ft 487 kts 300°
2026-05-05 13:46 24.31568 85.63202 27863 ft 485 kts 300°
2026-05-05 13:46 24.33477 85.60137 27860 ft 486 kts 300°
2026-05-05 13:47 24.34546 85.58422 27859 ft 485 kts 300°
2026-05-05 13:47 24.37780 85.53224 27866 ft 485 kts 300°
2026-05-05 13:47 24.39978 85.49689 27864 ft 486 kts 300°
2026-05-05 13:48 24.45066 85.41496 27865 ft 486 kts 300°
2026-05-05 13:48 24.46843 85.38630 27865 ft 487 kts 300°
2026-05-05 13:48 24.48763 85.35533 27861 ft 489 kts 300°
2026-05-05 13:49 24.50686 85.32430 27873 ft 487 kts 300°
2026-05-05 13:49 24.52611 85.29321 27856 ft 486 kts 300°
2026-05-05 13:49 24.54535 85.26212 27854 ft 487 kts 300°
2026-05-05 13:49 24.56464 85.23092 27846 ft 489 kts 300°
2026-05-05 13:50 24.58427 85.19914 27847 ft 489 kts 300°
2026-05-05 13:50 24.60364 85.16779 27851 ft 487 kts 300°
2026-05-05 13:50 24.62299 85.13642 27844 ft 488 kts 300°
2026-05-05 13:50 24.64234 85.10506 27847 ft 489 kts 300°
2026-05-05 13:51 24.66169 85.07366 27837 ft 489 kts 300°
2026-05-05 13:51 24.68107 85.04221 27837 ft 488 kts 300°
2026-05-05 13:51 24.70031 85.01096 27829 ft 489 kts 300°
2026-05-05 13:51 24.71970 84.97944 27828 ft 487 kts 300°
2026-05-05 13:52 24.73772 84.94793 27822 ft 485 kts 294°
2026-05-05 13:52 24.75194 84.91387 27819 ft 482 kts 288°
2026-05-05 13:52 24.76432 84.87914 27810 ft 482 kts 288°
2026-05-05 13:52 24.77641 84.84473 27819 ft 482 kts 288°
2026-05-05 13:53 24.78872 84.80957 27818 ft 484 kts 288°
2026-05-05 13:53 24.80102 84.77443 27819 ft 484 kts 288°
2026-05-05 13:53 24.81329 84.73933 27815 ft 483 kts 288°
2026-05-05 13:53 24.82549 84.70441 27811 ft 484 kts 288°
2026-05-05 13:54 24.83780 84.66912 27803 ft 484 kts 288°
2026-05-05 13:54 24.85014 84.63371 27804 ft 484 kts 288°
2026-05-05 13:54 24.86226 84.59888 27809 ft 484 kts 288°
2026-05-05 13:54 24.87439 84.56400 27807 ft 485 kts 288°
2026-05-05 13:55 24.88670 84.52856 27797 ft 485 kts 288°
2026-05-05 13:55 24.89901 84.49308 27799 ft 484 kts 288°
2026-05-05 13:55 24.91127 84.45774 27802 ft 484 kts 288°
2026-05-05 13:55 24.92334 84.42289 27794 ft 484 kts 288°
2026-05-05 13:56 24.93547 84.38784 27800 ft 486 kts 288°
2026-05-05 13:56 24.94766 84.35262 27789 ft 485 kts 288°
2026-05-05 13:56 24.95927 84.31901 27796 ft 485 kts 288°
2026-05-05 13:56 24.97155 84.28345 27792 ft 486 kts 288°
2026-05-05 13:57 24.98393 84.24754 27803 ft 489 kts 288°
2026-05-05 13:57 24.99601 84.21249 27784 ft 487 kts 288°
2026-05-05 13:57 25.00810 84.17739 27794 ft 486 kts 288°
2026-05-05 13:57 25.02051 84.14133 27794 ft 486 kts 288°
2026-05-05 13:58 25.03246 84.10655 27788 ft 486 kts 288°
2026-05-05 13:58 25.04461 84.07120 27790 ft 486 kts 288°
2026-05-05 13:58 25.05669 84.03597 27793 ft 485 kts 288°
2026-05-05 13:58 25.06888 84.00041 27795 ft 487 kts 288°
2026-05-05 13:59 25.09297 83.93008 27802 ft 484 kts 288°
2026-05-05 13:59 25.10496 83.89500 27793 ft 485 kts 288°
2026-05-05 14:00 25.12887 83.82497 27798 ft 484 kts 288°
2026-05-05 14:00 25.13687 83.80151 27797 ft 484 kts 288°
2026-05-05 14:00 25.15291 83.75442 27797 ft 485 kts 288°
2026-05-05 14:00 25.16468 83.71984 27784 ft 484 kts 288°
2026-05-05 14:01 25.17676 83.68434 27772 ft 485 kts 288°
2026-05-05 14:01 25.18875 83.64905 27781 ft 486 kts 288°
2026-05-05 14:01 25.20094 83.61313 27781 ft 484 kts 288°
2026-05-05 14:01 25.21292 83.57781 27780 ft 484 kts 288°
2026-05-05 14:02 25.22480 83.54275 27783 ft 483 kts 288°
2026-05-05 14:02 25.23700 83.50673 27779 ft 483 kts 288°
2026-05-05 14:02 25.24895 83.47138 27783 ft 482 kts 288°
2026-05-05 14:02 25.26118 83.43522 27792 ft 483 kts 288°
2026-05-05 14:03 25.27328 83.39937 27792 ft 482 kts 288°
2026-05-05 14:03 25.28529 83.36377 27794 ft 482 kts 288°
2026-05-05 14:03 25.29696 83.32916 27802 ft 481 kts 287°
2026-05-05 14:03 25.30889 83.29372 27803 ft 482 kts 287°
2026-05-05 14:04 25.32045 83.25935 27800 ft 481 kts 287°
2026-05-05 14:04 25.33211 83.22465 27804 ft 481 kts 287°
2026-05-05 14:04 25.34380 83.18985 27801 ft 481 kts 287°
2026-05-05 14:04 25.35552 83.15492 27801 ft 482 kts 287°
2026-05-05 14:05 25.36689 83.12100 27803 ft 481 kts 287°
2026-05-05 14:05 25.37863 83.08596 27799 ft 480 kts 287°
2026-05-05 14:05 25.39027 83.05116 27797 ft 480 kts 287°
2026-05-05 14:05 25.40215 83.01562 27800 ft 480 kts 287°
2026-05-05 14:06 25.41391 82.98043 27798 ft 479 kts 287°
2026-05-05 14:06 25.42566 82.94523 27799 ft 480 kts 287°
2026-05-05 14:06 25.43738 82.91007 27797 ft 480 kts 287°
2026-05-05 14:06 25.44963 82.87542 27793 ft 481 kts 291°
2026-05-05 14:07 25.46638 82.84184 27796 ft 485 kts 300°
2026-05-05 14:07 25.48677 82.81056 27805 ft 487 kts 303°
2026-05-05 14:07 25.50772 82.77979 27802 ft 489 kts 303°
2026-05-05 14:07 25.52864 82.74907 27804 ft 488 kts 303°
2026-05-05 14:08 25.54952 82.71833 27803 ft 488 kts 303°
2026-05-05 14:08 25.57053 82.68734 27800 ft 487 kts 303°
2026-05-05 14:08 25.59132 82.65663 27806 ft 487 kts 303°
2026-05-05 14:08 25.61204 82.62599 27805 ft 488 kts 303°
2026-05-05 14:09 25.63256 82.59560 27804 ft 487 kts 303°
2026-05-05 14:09 25.65313 82.56512 27807 ft 486 kts 303°
2026-05-05 14:09 25.67323 82.53529 27806 ft 486 kts 303°
2026-05-05 14:09 25.69342 82.50531 27809 ft 487 kts 303°
2026-05-05 14:10 25.71391 82.47486 27809 ft 486 kts 303°
2026-05-05 14:10 25.73413 82.44478 27810 ft 487 kts 303°
2026-05-05 14:10 25.75432 82.41474 27808 ft 486 kts 303°
2026-05-05 14:10 25.77433 82.38493 27805 ft 486 kts 303°
2026-05-05 14:11 25.79473 82.35452 27804 ft 486 kts 303°
2026-05-05 14:11 25.81494 82.32439 27812 ft 485 kts 303°
2026-05-05 14:11 25.83541 82.29385 27810 ft 486 kts 303°
2026-05-05 14:11 25.85566 82.26360 27806 ft 485 kts 303°
2026-05-05 14:12 25.87597 82.23325 27807 ft 487 kts 303°
2026-05-05 14:12 25.89650 82.20255 27801 ft 485 kts 303°
2026-05-05 14:12 25.91676 82.17224 27804 ft 484 kts 303°
2026-05-05 14:12 25.93759 82.14104 27803 ft 485 kts 303°
2026-05-05 14:13 25.95779 82.11078 27807 ft 483 kts 303°
2026-05-05 14:13 25.97805 82.08041 27803 ft 482 kts 303°
2026-05-05 14:13 25.99814 82.05027 27802 ft 482 kts 303°
2026-05-05 14:13 26.01803 82.02039 27799 ft 483 kts 303°
2026-05-05 14:14 26.03802 81.99037 27808 ft 483 kts 303°
2026-05-05 14:14 26.05804 81.96027 27798 ft 482 kts 303°
2026-05-05 14:14 26.07817 81.92999 27805 ft 483 kts 303°
2026-05-05 14:14 26.09805 81.90007 27801 ft 481 kts 303°
2026-05-05 14:15 26.11811 81.86986 27803 ft 482 kts 303°
2026-05-05 14:15 26.13809 81.83974 27808 ft 481 kts 303°
2026-05-05 14:15 26.15794 81.80980 27807 ft 481 kts 303°
2026-05-05 14:15 26.17791 81.77966 27808 ft 482 kts 303°
2026-05-05 14:16 26.19773 81.74972 27811 ft 481 kts 303°
2026-05-05 14:16 26.21768 81.71957 27816 ft 481 kts 303°
2026-05-05 14:16 26.23762 81.68943 27821 ft 479 kts 303°
2026-05-05 14:16 26.25749 81.65936 27819 ft 478 kts 303°
2026-05-05 14:17 26.27734 81.62931 27826 ft 479 kts 303°
2026-05-05 14:17 26.29712 81.59933 27825 ft 479 kts 303°
2026-05-05 14:17 26.31687 81.56939 27827 ft 477 kts 303°
2026-05-05 14:17 26.33663 81.53942 27830 ft 477 kts 303°
2026-05-05 14:18 26.35626 81.50961 27828 ft 478 kts 303°
2026-05-05 14:18 26.37607 81.47952 27828 ft 476 kts 303°
2026-05-05 14:18 26.39575 81.44960 27834 ft 476 kts 303°
2026-05-05 14:18 26.41532 81.41984 27832 ft 476 kts 303°
2026-05-05 14:19 26.43501 81.38988 27832 ft 475 kts 303°
2026-05-05 14:19 26.45445 81.36027 27834 ft 474 kts 303°
2026-05-05 14:19 26.47422 81.33012 27840 ft 475 kts 303°
2026-05-05 14:19 26.49365 81.30050 27838 ft 475 kts 303°
2026-05-05 14:20 26.51306 81.27087 27841 ft 474 kts 303°
2026-05-05 14:20 26.53262 81.24100 27845 ft 474 kts 303°
2026-05-05 14:20 26.55204 81.21133 27841 ft 473 kts 303°
2026-05-05 14:20 26.57149 81.18158 27843 ft 472 kts 303°
2026-05-05 14:21 26.59092 81.15185 27847 ft 473 kts 303°
2026-05-05 14:21 26.61019 81.12235 27848 ft 472 kts 303°
2026-05-05 14:21 26.62967 81.09250 27840 ft 473 kts 303°
2026-05-05 14:21 26.64923 81.06252 27842 ft 473 kts 303°
2026-05-05 14:22 26.66851 81.03294 27841 ft 472 kts 303°
2026-05-05 14:22 26.68793 81.00311 27845 ft 473 kts 303°
2026-05-05 14:22 26.70725 80.97345 27845 ft 471 kts 303°
2026-05-05 14:22 26.72695 80.94316 27846 ft 471 kts 303°
2026-05-05 14:23 26.74657 80.91298 27844 ft 473 kts 303°
2026-05-05 14:23 26.76610 80.88308 27837 ft 473 kts 305°
2026-05-05 14:23 26.78702 80.85516 27842 ft 473 kts 308°
2026-05-05 14:23 26.80902 80.82694 27836 ft 475 kts 308°
2026-05-05 14:24 26.83050 80.79929 27835 ft 474 kts 308°
2026-05-05 14:24 26.85221 80.77121 27833 ft 474 kts 308°
2026-05-05 14:24 26.87390 80.74304 27833 ft 474 kts 308°
2026-05-05 14:24 26.89537 80.71510 27831 ft 473 kts 308°
2026-05-05 14:25 26.91682 80.68710 27832 ft 474 kts 308°
2026-05-05 14:25 26.93832 80.65898 27832 ft 474 kts 308°
2026-05-05 14:25 26.95997 80.63063 27831 ft 474 kts 308°
2026-05-05 14:25 26.98133 80.60262 27829 ft 474 kts 308°
2026-05-05 14:26 27.00271 80.57455 27830 ft 474 kts 308°
2026-05-05 14:26 27.02429 80.54620 27835 ft 476 kts 308°
2026-05-05 14:26 27.04585 80.51784 27834 ft 475 kts 308°
2026-05-05 14:26 27.06735 80.48954 27838 ft 474 kts 308°
2026-05-05 14:27 27.08884 80.46122 27841 ft 477 kts 308°
2026-05-05 14:27 27.11034 80.43288 27842 ft 476 kts 308°
2026-05-05 14:27 27.13198 80.40433 27843 ft 475 kts 308°
2026-05-05 14:27 27.15347 80.37595 27847 ft 477 kts 308°
2026-05-05 14:28 27.17515 80.34731 27847 ft 476 kts 307°
2026-05-05 14:28 27.19650 80.31908 27854 ft 477 kts 307°
2026-05-05 14:28 27.21802 80.29061 27853 ft 476 kts 308°
2026-05-05 14:28 27.23962 80.26202 27856 ft 478 kts 308°
2026-05-05 14:29 27.26124 80.23338 27853 ft 478 kts 307°
2026-05-05 14:29 27.28265 80.20499 27851 ft 477 kts 308°
2026-05-05 14:29 27.30461 80.17587 27847 ft 477 kts 307°
2026-05-05 14:29 27.32598 80.14750 27845 ft 478 kts 308°
2026-05-05 14:30 27.34744 80.11900 27843 ft 478 kts 308°
2026-05-05 14:30 27.36914 80.09016 27845 ft 479 kts 308°
2026-05-05 14:30 27.39088 80.06123 27846 ft 479 kts 308°
2026-05-05 14:30 27.41233 80.03269 27847 ft 478 kts 308°
2026-05-05 14:31 27.43376 80.00415 27846 ft 478 kts 308°
2026-05-05 14:31 27.45553 79.97514 27844 ft 478 kts 308°
2026-05-05 14:31 27.47690 79.94663 27845 ft 480 kts 308°
2026-05-05 14:31 27.49870 79.91755 27850 ft 479 kts 308°
2026-05-05 14:32 27.52013 79.88893 27848 ft 480 kts 308°
2026-05-05 14:32 27.54183 79.85994 27847 ft 479 kts 308°
2026-05-05 14:32 27.56327 79.83128 27850 ft 480 kts 308°
2026-05-05 14:32 27.58504 79.80214 27851 ft 481 kts 308°
2026-05-05 14:33 27.60656 79.77332 27850 ft 480 kts 308°
2026-05-05 14:33 27.62799 79.74461 27854 ft 481 kts 308°
2026-05-05 14:33 27.64976 79.71542 27855 ft 482 kts 308°
2026-05-05 14:33 27.67138 79.68642 27852 ft 481 kts 308°
2026-05-05 14:34 27.69100 79.65562 27851 ft 479 kts 299°
2026-05-05 14:34 27.70605 79.62231 27850 ft 478 kts 292°
2026-05-05 14:34 27.71908 79.58775 27856 ft 480 kts 291°
2026-05-05 14:34 27.73195 79.55297 27847 ft 479 kts 291°
2026-05-05 14:35 27.74488 79.51791 27852 ft 478 kts 291°
2026-05-05 14:35 27.75768 79.48312 27857 ft 480 kts 291°
2026-05-05 14:35 27.77037 79.44859 27850 ft 481 kts 291°
2026-05-05 14:35 27.78329 79.41337 27856 ft 480 kts 291°
2026-05-05 14:36 27.79608 79.37846 27857 ft 481 kts 291°
2026-05-05 14:36 27.80889 79.34347 27863 ft 480 kts 291°
2026-05-05 14:36 27.82164 79.30860 27867 ft 481 kts 291°
2026-05-05 14:36 27.83440 79.27367 27868 ft 481 kts 291°
2026-05-05 14:37 27.84711 79.23883 27869 ft 481 kts 291°
2026-05-05 14:37 27.85997 79.20355 27864 ft 482 kts 291°
2026-05-05 14:37 27.87283 79.16821 27860 ft 481 kts 291°
2026-05-05 14:37 27.88555 79.13325 27856 ft 481 kts 291°
2026-05-05 14:38 27.89822 79.09839 27862 ft 483 kts 291°
2026-05-05 14:38 27.91105 79.06306 27865 ft 482 kts 291°
2026-05-05 14:38 27.92385 79.02776 27865 ft 483 kts 291°
2026-05-05 14:38 27.93664 78.99247 27865 ft 484 kts 291°
2026-05-05 14:39 27.94932 78.95744 27856 ft 483 kts 291°
2026-05-05 14:39 27.96214 78.92200 27868 ft 483 kts 291°
2026-05-05 14:39 27.97480 78.88696 27866 ft 484 kts 291°
2026-05-05 14:39 27.98762 78.85146 27865 ft 485 kts 291°
2026-05-05 14:40 28.00024 78.81647 27863 ft 482 kts 291°
2026-05-05 14:40 28.01298 78.78112 27865 ft 481 kts 291°
2026-05-05 14:40 28.02563 78.74597 27861 ft 481 kts 291°
2026-05-05 14:40 28.03838 78.71053 27859 ft 481 kts 291°
2026-05-05 14:41 28.05090 78.67567 27862 ft 480 kts 291°
2026-05-05 14:41 28.06352 78.64052 27858 ft 480 kts 291°
2026-05-05 14:41 28.07627 78.60495 27853 ft 479 kts 291°
2026-05-05 14:41 28.08875 78.57012 27860 ft 479 kts 291°
2026-05-05 14:42 28.10155 78.53437 27855 ft 480 kts 291°
2026-05-05 14:42 28.11415 78.49915 27860 ft 480 kts 291°
2026-05-05 14:42 28.12662 78.46422 27853 ft 478 kts 291°
2026-05-05 14:42 28.13930 78.42871 27857 ft 479 kts 291°